Donnes mto: Actuelle jeudi, 07/12/2023 20:27
Date Horaire Temp. E. Hum. E. P.atmo. Pluie Vent Direction Direction Ensoleilleme UV Solaire P. de rose Temp au vent Rafales
07/12/2023 20:27 8,8 C 92 % 1010,3 hPa 0,2 mm 3,5 km/h (1 Bft) S-SE 161 0 min 0,0 UV-I 0 W/m 7,6 C 8,8 C 8,0 km/h (2 Bft)
07/12/2023 20:24 8,7 C 92 % 1010,3 hPa 0,2 mm 6,7 km/h (2 Bft) S-SE 160 0 min 0,0 UV-I 0 W/m 7,5 C 7,8 C 11,3 km/h (2 Bft)
07/12/2023 20:21 8,7 C 92 % 1010,2 hPa 0,2 mm 7,2 km/h (2 Bft) S-SE 160 0 min 0,0 UV-I 0 W/m 7,5 C 7,7 C 12,9 km/h (3 Bft)
07/12/2023 20:18 8,7 C 92 % 1010,1 hPa 0,2 mm 7,8 km/h (2 Bft) SO 221 0 min 0,0 UV-I 0 W/m 7,5 C 7,5 C 17,7 km/h (3 Bft)
07/12/2023 20:15 8,6 C 92 % 1010,1 hPa 0,2 mm 7,3 km/h (2 Bft) S 174 0 min 0,0 UV-I 0 W/m 7,4 C 7,5 C 12,9 km/h (3 Bft)
07/12/2023 20:12 8,6 C 92 % 1010,0 hPa 0,0 mm 7,2 km/h (2 Bft) S-SE 162 0 min 0,0 UV-I 0 W/m 7,4 C 7,5 C 12,9 km/h (3 Bft)
07/12/2023 20:09 8,6 C 92 % 1010,1 hPa 0,2 mm 7,6 km/h (2 Bft) SE 146 0 min 0,0 UV-I 0 W/m 7,4 C 7,5 C 11,3 km/h (2 Bft)
07/12/2023 20:06 8,5 C 92 % 1010,1 hPa 0,0 mm 6,2 km/h (2 Bft) SE 138 0 min 0,0 UV-I 0 W/m 7,3 C 7,7 C 17,7 km/h (3 Bft)
07/12/2023 20:03 8,5 C 92 % 1010,0 hPa 0,2 mm 10,3 km/h (2 Bft) S-SE 160 0 min 0,0 UV-I 0 W/m 7,3 C 6,8 C 19,3 km/h (3 Bft)
07/12/2023 20:00 8,4 C 92 % 1010,0 hPa 0,0 mm 7,7 km/h (2 Bft) S 174 0 min 0,0 UV-I 0 W/m 7,2 C 7,2 C 12,9 km/h (3 Bft)
07/12/2023 19:57 8,4 C 92 % 1009,9 hPa 0,2 mm 9,3 km/h (2 Bft) SO 216 0 min 0,0 UV-I 0 W/m 7,2 C 6,9 C 17,7 km/h (3 Bft)
07/12/2023 19:54 8,4 C 92 % 1009,8 hPa 0,2 mm 10,1 km/h (2 Bft) S-SO 200 0 min 0,0 UV-I 0 W/m 7,2 C 6,7 C 17,7 km/h (3 Bft)
07/12/2023 19:51 8,4 C 92 % 1010,0 hPa 0,2 mm 10,5 km/h (2 Bft) S 182 0 min 0,0 UV-I 0 W/m 7,2 C 6,6 C 20,9 km/h (4 Bft)
07/12/2023 19:48 8,4 C 92 % 1010,0 hPa 0,0 mm 7,7 km/h (2 Bft) SE 140 0 min 0,0 UV-I 0 W/m 7,2 C 7,2 C 19,3 km/h (3 Bft)
07/12/2023 19:45 8,3 C 92 % 1010,1 hPa 0,2 mm 6,6 km/h (2 Bft) S-SO 204 0 min 0,0 UV-I 0 W/m 7,1 C 7,4 C 16,1 km/h (3 Bft)
07/12/2023 19:42 8,3 C 92 % 1010,0 hPa 0,2 mm 9,4 km/h (2 Bft) S-SE 166 0 min 0,0 UV-I 0 W/m 7,1 C 6,7 C 16,1 km/h (3 Bft)
07/12/2023 19:39 8,3 C 92 % 1009,9 hPa 0,0 mm 9,1 km/h (2 Bft) S 180 0 min 0,0 UV-I 0 W/m 7,1 C 6,8 C 17,7 km/h (3 Bft)
07/12/2023 19:36 8,2 C 92 % 1009,9 hPa 0,2 mm 6,8 km/h (2 Bft) S-SE 166 0 min 0,0 UV-I 0 W/m 7,0 C 7,2 C 16,1 km/h (3 Bft)
07/12/2023 19:33 8,2 C 92 % 1010,0 hPa 0,2 mm 5,7 km/h (1 Bft) S-SE 150 0 min 0,0 UV-I 0 W/m 7,0 C 7,5 C 14,5 km/h (3 Bft)
07/12/2023 19:30 8,2 C 92 % 1010,0 hPa 0,2 mm 5,9 km/h (2 Bft) S 169 0 min 0,0 UV-I 0 W/m 7,0 C 7,4 C 14,5 km/h (3 Bft)
07/12/2023 19:27 8,2 C 92 % 1010,0 hPa 0,2 mm 8,1 km/h (2 Bft) S 178 0 min 0,0 UV-I 0 W/m 7,0 C 6,9 C 14,5 km/h (3 Bft)
07/12/2023 19:24 8,2 C 92 % 1010,0 hPa 0,0 mm 11,4 km/h (2 Bft) S 185 0 min 0,0 UV-I 0 W/m 7,0 C 6,2 C 20,9 km/h (4 Bft)
07/12/2023 19:21 8,1 C 92 % 1009,9 hPa 0,2 mm 9,9 km/h (2 Bft) S-SE 152 0 min 0,0 UV-I 0 W/m 6,9 C 6,4 C 19,3 km/h (3 Bft)
07/12/2023 19:18 8,1 C 92 % 1010,0 hPa 0,0 mm 8,5 km/h (2 Bft) S-SE 154 0 min 0,0 UV-I 0 W/m 6,9 C 6,7 C 17,7 km/h (3 Bft)
07/12/2023 19:15 8,1 C 92 % 1010,0 hPa 0,2 mm 9,4 km/h (2 Bft) S-SE 155 0 min 0,0 UV-I 0 W/m 6,9 C 6,5 C 16,1 km/h (3 Bft)
07/12/2023 19:12 8,1 C 92 % 1010,0 hPa 0,2 mm 9,5 km/h (2 Bft) S-SE 154 0 min 0,0 UV-I 0 W/m 6,9 C 6,5 C 22,5 km/h (4 Bft)
07/12/2023 19:09 8,0 C 92 % 1010,0 hPa 0,0 mm 8,7 km/h (2 Bft) O-SO 243 0 min 0,0 UV-I 0 W/m 6,8 C 6,5 C 20,9 km/h (4 Bft)
07/12/2023 19:06 8,0 C 92 % 1009,9 hPa 0,2 mm 10,7 km/h (2 Bft) SE 135 0 min 0,0 UV-I 0 W/m 6,8 C 6,1 C 19,3 km/h (3 Bft)
07/12/2023 19:03 7,9 C 92 % 1009,9 hPa 0,2 mm 9,0 km/h (2 Bft) S-SE 156 0 min 0,0 UV-I 0 W/m 6,7 C 6,3 C 19,3 km/h (3 Bft)
07/12/2023 19:00 7,9 C 92 % 1009,9 hPa 0,2 mm 9,3 km/h (2 Bft) E-SE 123 0 min 0,0 UV-I 0 W/m 6,7 C 6,3 C 16,1 km/h (3 Bft)
07/12/2023 18:57 7,8 C 91 % 1010,0 hPa 0,2 mm 4,9 km/h (1 Bft) SE 141 0 min 0,0 UV-I 0 W/m 6,4 C 7,3 C 16,1 km/h (3 Bft)
07/12/2023 18:54 7,8 C 91 % 1010,0 hPa 0,2 mm 9,3 km/h (2 Bft) E-SE 103 0 min 0,0 UV-I 0 W/m 6,4 C 6,1 C 17,7 km/h (3 Bft)
07/12/2023 18:51 7,8 C 91 % 1010,0 hPa 0,0 mm 5,4 km/h (1 Bft) S-SE 164 0 min 0,0 UV-I 0 W/m 6,4 C 7,1 C 11,3 km/h (2 Bft)
07/12/2023 18:48 7,7 C 91 % 1009,9 hPa 0,2 mm 6,5 km/h (2 Bft) O-SO 243 0 min 0,0 UV-I 0 W/m 6,3 C 6,7 C 14,5 km/h (3 Bft)
07/12/2023 18:45 7,8 C 91 % 1009,9 hPa 0,2 mm 9,7 km/h (2 Bft) SE 139 0 min 0,0 UV-I 0 W/m 6,4 C 6,1 C 17,7 km/h (3 Bft)
07/12/2023 18:42 7,7 C 91 % 1010,0 hPa 0,2 mm 9,1 km/h (2 Bft) S 170 0 min 0,0 UV-I 0 W/m 6,3 C 6,1 C 17,7 km/h (3 Bft)
07/12/2023 18:39 7,7 C 91 % 1010,0 hPa 0,2 mm 7,2 km/h (2 Bft) S-SE 166 0 min 0,0 UV-I 0 W/m 6,3 C 6,5 C 14,5 km/h (3 Bft)
07/12/2023 18:36 7,7 C 91 % 1010,0 hPa 0,2 mm 8,5 km/h (2 Bft) S 179 0 min 0,0 UV-I 0 W/m 6,3 C 6,2 C 17,7 km/h (3 Bft)
07/12/2023 18:33 7,7 C 91 % 1010,0 hPa 0,0 mm 5,4 km/h (1 Bft) S 177 0 min 0,0 UV-I 0 W/m 6,3 C 7,0 C 12,9 km/h (3 Bft)
07/12/2023 18:30 7,7 C 91 % 1010,0 hPa 0,2 mm 6,5 km/h (2 Bft) S-SE 158 0 min 0,0 UV-I 0 W/m 6,3 C 6,7 C 14,5 km/h (3 Bft)
07/12/2023 18:27 7,7 C 91 % 1010,1 hPa 0,0 mm 5,3 km/h (1 Bft) S-SE 150 0 min 0,0 UV-I 0 W/m 6,3 C 7,0 C 9,7 km/h (2 Bft)
07/12/2023 18:24 7,8 C 91 % 1010,1 hPa 0,2 mm 8,0 km/h (2 Bft) S-SE 155 0 min 0,0 UV-I 0 W/m 6,4 C 6,4 C 14,5 km/h (3 Bft)
07/12/2023 18:21 7,8 C 91 % 1010,1 hPa 0,2 mm 7,7 km/h (2 Bft) S 175 0 min 0,0 UV-I 0 W/m 6,4 C 6,5 C 14,5 km/h (3 Bft)
07/12/2023 18:18 7,8 C 91 % 1010,1 hPa 0,2 mm 5,0 km/h (1 Bft) SO 214 0 min 0,0 UV-I 0 W/m 6,4 C 7,3 C 12,9 km/h (3 Bft)
07/12/2023 18:15 7,7 C 91 % 1010,0 hPa 0,2 mm 6,6 km/h (2 Bft) E-SE 122 0 min 0,0 UV-I 0 W/m 6,3 C 6,7 C 14,5 km/h (3 Bft)
07/12/2023 18:12 7,7 C 91 % 1010,1 hPa 0,2 mm 7,3 km/h (2 Bft) S-SE 163 0 min 0,0 UV-I 0 W/m 6,3 C 6,5 C 14,5 km/h (3 Bft)
07/12/2023 18:09 7,7 C 90 % 1010,1 hPa 0,2 mm 4,0 km/h (1 Bft) E-SE 112 0 min 0,0 UV-I 0 W/m 6,2 C 7,7 C 11,3 km/h (2 Bft)
07/12/2023 18:06 7,6 C 90 % 1010,1 hPa 0,2 mm 6,9 km/h (2 Bft) S 183 0 min 0,0 UV-I 0 W/m 6,1 C 6,5 C 14,5 km/h (3 Bft)
07/12/2023 18:03 7,6 C 90 % 1010,1 hPa 0,2 mm 5,6 km/h (1 Bft) S 179 0 min 0,0 UV-I 0 W/m 6,1 C 6,8 C 11,3 km/h (2 Bft)
07/12/2023 18:00 7,6 C 90 % 1010,0 hPa 0,2 mm 5,1 km/h (1 Bft) S-SE 157 0 min 0,0 UV-I 0 W/m 6,1 C 7,0 C 9,7 km/h (2 Bft)
07/12/2023 17:57 7,6 C 90 % 1010,1 hPa 0,2 mm 4,6 km/h (1 Bft) S-SE 154 0 min 0,0 UV-I 0 W/m 6,1 C 7,2 C 11,3 km/h (2 Bft)
07/12/2023 17:54 7,6 C 90 % 1010,1 hPa 0,2 mm 5,4 km/h (1 Bft) SE 145 0 min 0,0 UV-I 0 W/m 6,1 C 6,9 C 16,1 km/h (3 Bft)
07/12/2023 17:51 7,5 C 90 % 1010,1 hPa 0,2 mm 2,5 km/h (1 Bft) SE 136 0 min 0,0 UV-I 0 W/m 6,0 C 7,5 C 9,7 km/h (2 Bft)
07/12/2023 17:48 7,4 C 90 % 1010,1 hPa 0,2 mm 4,2 km/h (1 Bft) S-SE 150 0 min 0,0 UV-I 0 W/m 5,9 C 7,4 C 11,3 km/h (2 Bft)
07/12/2023 17:45 7,4 C 90 % 1010,1 hPa 0,0 mm 3,7 km/h (1 Bft) S 188 0 min 0,0 UV-I 0 W/m 5,9 C 7,4 C 9,7 km/h (2 Bft)
07/12/2023 17:42 7,4 C 90 % 1010,2 hPa 0,2 mm 3,0 km/h (1 Bft) SE 129 0 min 0,0 UV-I 0 W/m 5,9 C 7,4 C 8,0 km/h (2 Bft)
07/12/2023 17:39 7,4 C 90 % 1010,2 hPa 0,0 mm 3,2 km/h (1 Bft) E-SE 117 0 min 0,0 UV-I 0 W/m 5,9 C 7,4 C 9,7 km/h (2 Bft)
07/12/2023 17:36 7,4 C 90 % 1010,2 hPa 0,2 mm 2,4 km/h (1 Bft) S 180 0 min 0,0 UV-I 0 W/m 5,9 C 7,4 C 8,0 km/h (2 Bft)
07/12/2023 17:33 7,4 C 90 % 1010,2 hPa 0,0 mm 3,1 km/h (1 Bft) S-SE 156 0 min 0,0 UV-I 0 W/m 5,9 C 7,4 C 9,7 km/h (2 Bft)
07/12/2023 17:30 7,4 C 89 % 1010,3 hPa 0,2 mm 2,3 km/h (1 Bft) E 98 0 min 0,0 UV-I 0 W/m 5,7 C 7,4 C 8,0 km/h (2 Bft)
07/12/2023 17:27 7,4 C 89 % 1010,3 hPa 0,2 mm 3,4 km/h (1 Bft) E 90 0 min 0,0 UV-I 0 W/m 5,7 C 7,4 C 11,3 km/h (2 Bft)
07/12/2023 17:24 7,4 C 89 % 1010,3 hPa 0,0 mm 5,0 km/h (1 Bft) S 183 0 min 0,0 UV-I 0 W/m 5,7 C 6,8 C 14,5 km/h (3 Bft)
07/12/2023 17:21 7,4 C 89 % 1010,3 hPa 0,2 mm 4,1 km/h (1 Bft) S-SE 156 0 min 0,0 UV-I 0 W/m 5,7 C 7,4 C 11,3 km/h (2 Bft)
07/12/2023 17:18 7,4 C 89 % 1010,3 hPa 0,0 mm 4,0 km/h (1 Bft) S-SE 158 0 min 0,0 UV-I 0 W/m 5,7 C 7,4 C 6,4 km/h (2 Bft)
07/12/2023 17:15 7,5 C 89 % 1010,4 hPa 0,0 mm 3,6 km/h (1 Bft) E-SE 116 0 min 0,0 UV-I 0 W/m 5,8 C 7,5 C 8,0 km/h (2 Bft)
07/12/2023 17:12 7,5 C 88 % 1010,4 hPa 0,2 mm 3,8 km/h (1 Bft) S-SE 156 0 min 0,0 UV-I 0 W/m 5,6 C 7,5 C 9,7 km/h (2 Bft)
07/12/2023 17:09 7,5 C 88 % 1010,4 hPa 0,0 mm 2,1 km/h (1 Bft) SE 145 0 min 0,0 UV-I 0 W/m 5,6 C 7,5 C 9,7 km/h (2 Bft)
07/12/2023 17:06 7,5 C 88 % 1010,4 hPa 0,2 mm 2,4 km/h (1 Bft) S-SE 149 0 min 0,0 UV-I 0 W/m 5,6 C 7,5 C 6,4 km/h (2 Bft)
07/12/2023 17:03 7,5 C 88 % 1010,4 hPa 0,0 mm 5,2 km/h (1 Bft) SE 146 0 min 0,0 UV-I 0 W/m 5,6 C 6,9 C 9,7 km/h (2 Bft)
07/12/2023 17:00 7,5 C 88 % 1010,4 hPa 0,0 mm 5,5 km/h (1 Bft) S-SE 149 0 min 0,0 UV-I 5 W/m 5,6 C 6,8 C 17,7 km/h (3 Bft)
07/12/2023 16:57 7,4 C 87 % 1010,5 hPa 0,0 mm 5,9 km/h (2 Bft) N 359 0 min 0,0 UV-I 5 W/m 5,4 C 6,5 C 11,3 km/h (2 Bft)
07/12/2023 16:54 7,5 C 87 % 1010,5 hPa 0,2 mm 5,0 km/h (1 Bft) SE 129 0 min 0,0 UV-I 5 W/m 5,5 C 6,9 C 11,3 km/h (2 Bft)
07/12/2023 16:51 7,5 C 87 % 1010,6 hPa 0,0 mm 3,9 km/h (1 Bft) S 179 0 min 0,0 UV-I 5 W/m 5,5 C 7,5 C 9,7 km/h (2 Bft)
07/12/2023 16:48 7,6 C 87 % 1010,6 hPa 0,0 mm 5,1 km/h (1 Bft) S 177 0 min 0,0 UV-I 5 W/m 5,6 C 7,0 C 12,9 km/h (3 Bft)
07/12/2023 16:45 7,6 C 86 % 1010,6 hPa 0,0 mm 4,0 km/h (1 Bft) SE 143 0 min 0,0 UV-I 5 W/m 5,4 C 7,6 C 12,9 km/h (3 Bft)
07/12/2023 16:42 7,6 C 86 % 1010,7 hPa 0,0 mm 3,9 km/h (1 Bft) S 172 0 min 0,0 UV-I 5 W/m 5,4 C 7,6 C 9,7 km/h (2 Bft)
07/12/2023 16:39 7,7 C 85 % 1010,8 hPa 0,2 mm 5,6 km/h (1 Bft) S-SE 151 0 min 0,0 UV-I 7 W/m 5,3 C 6,9 C 14,5 km/h (3 Bft)
07/12/2023 16:36 7,8 C 85 % 1010,8 hPa 0,0 mm 4,8 km/h (1 Bft) S-SE 158 0 min 0,0 UV-I 9 W/m 5,4 C 7,3 C 9,7 km/h (2 Bft)
07/12/2023 16:33 7,9 C 84 % 1010,8 hPa 0,0 mm 7,5 km/h (2 Bft) S 175 0 min 0,0 UV-I 11 W/m 5,4 C 6,7 C 14,5 km/h (3 Bft)
07/12/2023 16:30 8,0 C 84 % 1010,9 hPa 0,0 mm 3,4 km/h (1 Bft) S-SE 159 0 min 0,0 UV-I 14 W/m 5,5 C 8,0 C 9,7 km/h (2 Bft)
07/12/2023 16:27 8,1 C 83 % 1010,9 hPa 0,0 mm 7,1 km/h (2 Bft) SE 145 0 min 0,0 UV-I 19 W/m 5,4 C 7,0 C 11,3 km/h (2 Bft)
07/12/2023 16:24 8,2 C 82 % 1010,9 hPa 0,0 mm 6,1 km/h (2 Bft) SE 129 0 min 0,0 UV-I 21 W/m 5,3 C 7,4 C 11,3 km/h (2 Bft)
07/12/2023 16:21 8,3 C 82 % 1010,9 hPa 0,0 mm 4,7 km/h (1 Bft) SE 142 0 min 0,0 UV-I 25 W/m 5,4 C 7,9 C 12,9 km/h (3 Bft)
07/12/2023 16:18 8,3 C 81 % 1010,9 hPa 0,0 mm 8,1 km/h (2 Bft) SE 144 0 min 0,0 UV-I 30 W/m 5,2 C 7,0 C 12,9 km/h (3 Bft)
07/12/2023 16:15 8,4 C 81 % 1010,9 hPa 0,0 mm 6,2 km/h (2 Bft) S-SE 160 0 min 0,0 UV-I 28 W/m 5,3 C 7,6 C 12,9 km/h (3 Bft)
07/12/2023 16:12 8,4 C 81 % 1010,9 hPa 0,0 mm 2,3 km/h (1 Bft) S-SE 168 0 min 0,0 UV-I 30 W/m 5,3 C 8,4 C 6,4 km/h (2 Bft)
07/12/2023 16:09 8,5 C 81 % 1010,9 hPa 0,0 mm 4,7 km/h (1 Bft) SO 224 0 min 0,0 UV-I 32 W/m 5,4 C 8,2 C 11,3 km/h (2 Bft)
07/12/2023 16:06 8,5 C 80 % 1010,9 hPa 0,0 mm 3,3 km/h (1 Bft) S 188 0 min 0,0 UV-I 30 W/m 5,3 C 8,5 C 9,7 km/h (2 Bft)
07/12/2023 16:03 8,6 C 80 % 1011,0 hPa 0,0 mm 4,8 km/h (1 Bft) S 184 0 min 0,0 UV-I 25 W/m 5,3 C 8,2 C 9,7 km/h (2 Bft)
07/12/2023 16:00 8,6 C 80 % 1011,0 hPa 0,0 mm 6,9 km/h (2 Bft) S-SE 164 0 min 0,0 UV-I 35 W/m 5,3 C 7,6 C 9,7 km/h (2 Bft)
07/12/2023 15:57 8,7 C 79 % 1010,9 hPa 0,0 mm 6,2 km/h (2 Bft) SE 144 0 min 0,0 UV-I 46 W/m 5,3 C 7,9 C 9,7 km/h (2 Bft)
07/12/2023 15:54 8,7 C 79 % 1010,9 hPa 0,0 mm 4,2 km/h (1 Bft) SE 144 0 min 0,0 UV-I 39 W/m 5,3 C 8,7 C 11,3 km/h (2 Bft)
07/12/2023 15:51 8,8 C 78 % 1011,0 hPa 0,0 mm 5,2 km/h (1 Bft) S-SE 151 0 min 0,0 UV-I 39 W/m 5,2 C 8,3 C 11,3 km/h (2 Bft)
07/12/2023 15:48 8,8 C 78 % 1011,0 hPa 0,0 mm 6,6 km/h (2 Bft) S-SE 152 0 min 0,0 UV-I 47 W/m 5,2 C 7,9 C 14,5 km/h (3 Bft)
07/12/2023 15:45 8,9 C 77 % 1011,1 hPa 0,0 mm 8,0 km/h (2 Bft) S 169 0 min 0,0 UV-I 51 W/m 5,1 C 7,7 C 12,9 km/h (3 Bft)
07/12/2023 15:42 8,9 C 77 % 1011,0 hPa 0,0 mm 5,5 km/h (1 Bft) S-SO 196 0 min 0,0 UV-I 56 W/m 5,1 C 8,4 C 9,7 km/h (2 Bft)
07/12/2023 15:39 8,9 C 77 % 1011,1 hPa 0,0 mm 5,2 km/h (1 Bft) S 175 0 min 0,0 UV-I 49 W/m 5,1 C 8,4 C 11,3 km/h (2 Bft)
07/12/2023 15:36 8,9 C 77 % 1011,2 hPa 0,0 mm 6,4 km/h (2 Bft) S 177 0 min 0,0 UV-I 42 W/m 5,1 C 8,1 C 11,3 km/h (2 Bft)
07/12/2023 15:33 8,9 C 77 % 1011,1 hPa 0,0 mm 6,1 km/h (2 Bft) S-SE 166 0 min 0,0 UV-I 56 W/m 5,1 C 8,2 C 12,9 km/h (3 Bft)
07/12/2023 15:30 8,9 C 77 % 1011,2 hPa 0,0 mm 5,5 km/h (1 Bft) SO 222 0 min 0,0 UV-I 65 W/m 5,1 C 8,4 C 12,9 km/h (3 Bft)
07/12/2023 15:27 8,9 C 77 % 1011,2 hPa 0,0 mm 6,1 km/h (2 Bft) S-SE 162 0 min 0,0 UV-I 70 W/m 5,1 C 8,2 C 16,1 km/h (3 Bft)
07/12/2023 15:24 8,9 C 77 % 1011,2 hPa 0,0 mm 5,2 km/h (1 Bft) S-SE 153 0 min 0,0 UV-I 83 W/m 5,1 C 8,4 C 12,9 km/h (3 Bft)
07/12/2023 15:21 8,9 C 77 % 1011,1 hPa 0,0 mm 6,9 km/h (2 Bft) S 176 0 min 0,0 UV-I 109 W/m 5,1 C 8,0 C 12,9 km/h (3 Bft)
07/12/2023 15:18 8,8 C 77 % 1011,0 hPa 0,0 mm 5,6 km/h (1 Bft) S 183 0 min 0,0 UV-I 128 W/m 5,0 C 8,2 C 11,3 km/h (2 Bft)
07/12/2023 15:15 8,7 C 77 % 1011,0 hPa 0,0 mm 4,3 km/h (1 Bft) S 170 0 min 0,0 UV-I 123 W/m 4,9 C 8,7 C 12,9 km/h (3 Bft)
07/12/2023 15:12 8,6 C 77 % 1010,9 hPa 0,0 mm 7,9 km/h (2 Bft) S-SE 150 0 min 0,0 UV-I 93 W/m 4,8 C 7,4 C 16,1 km/h (3 Bft)
07/12/2023 15:09 8,7 C 77 % 1010,8 hPa 0,0 mm 4,1 km/h (1 Bft) E-SE 113 0 min 0,0 UV-I 69 W/m 4,9 C 8,7 C 11,3 km/h (2 Bft)
07/12/2023 15:06 8,6 C 76 % 1011,0 hPa 0,0 mm 8,3 km/h (2 Bft) S-SE 166 0 min 0,0 UV-I 70 W/m 4,6 C 7,3 C 16,1 km/h (3 Bft)
07/12/2023 15:03 8,7 C 76 % 1011,0 hPa 0,0 mm 9,0 km/h (2 Bft) SE 137 0 min 0,0 UV-I 86 W/m 4,7 C 7,3 C 16,1 km/h (3 Bft)
07/12/2023 15:00 8,7 C 76 % 1011,1 hPa 0,0 mm 10,0 km/h (2 Bft) S-SE 147 0 min 0,0 UV-I 97 W/m 4,7 C 7,1 C 17,7 km/h (3 Bft)
07/12/2023 14:57 8,9 C 77 % 1011,1 hPa 0,0 mm 2,3 km/h (1 Bft) S-SE 165 0 min 0,0 UV-I 107 W/m 5,1 C 8,9 C 9,7 km/h (2 Bft)
07/12/2023 14:54 8,8 C 77 % 1011,1 hPa 0,0 mm 2,8 km/h (1 Bft) S-SE 166 0 min 0,0 UV-I 114 W/m 5,0 C 8,8 C 12,9 km/h (3 Bft)
07/12/2023 14:51 8,7 C 77 % 1011,1 hPa 0,0 mm 3,2 km/h (1 Bft) S-SE 168 0 min 0,0 UV-I 121 W/m 4,9 C 8,7 C 9,7 km/h (2 Bft)
07/12/2023 14:48 8,7 C 77 % 1011,2 hPa 0,0 mm 3,6 km/h (1 Bft) S-SE 162 0 min 0,0 UV-I 120 W/m 4,9 C 8,7 C 9,7 km/h (2 Bft)
07/12/2023 14:45 8,6 C 76 % 1011,2 hPa 0,0 mm 5,8 km/h (2 Bft) S-SO 208 0 min 0,0 UV-I 127 W/m 4,6 C 7,9 C 14,5 km/h (3 Bft)
07/12/2023 14:42 8,5 C 76 % 1011,3 hPa 0,0 mm 6,8 km/h (2 Bft) S-SE 167 0 min 0,0 UV-I 146 W/m 4,5 C 7,5 C 12,9 km/h (3 Bft)
07/12/2023 14:39 8,4 C 77 % 1011,2 hPa 0,0 mm 6,1 km/h (2 Bft) S-SO 198 0 min 0,0 UV-I 158 W/m 4,6 C 7,6 C 14,5 km/h (3 Bft)
07/12/2023 14:36 8,3 C 76 % 1011,3 hPa 0,0 mm 6,4 km/h (2 Bft) S-SE 164 0 min 0,0 UV-I 148 W/m 4,3 C 7,4 C 12,9 km/h (3 Bft)
07/12/2023 14:33 8,3 C 76 % 1011,4 hPa 0,0 mm 5,6 km/h (1 Bft) S-SE 160 0 min 0,0 UV-I 105 W/m 4,3 C 7,6 C 11,3 km/h (2 Bft)
07/12/2023 14:30 8,3 C 76 % 1011,5 hPa 0,0 mm 4,9 km/h (1 Bft) S 178 0 min 0,0 UV-I 90 W/m 4,3 C 7,9 C 11,3 km/h (2 Bft)
07/12/2023 14:27 8,3 C 76 % 1011,5 hPa 0,0 mm 1,0 km/h (0 Bft) S 181 0 min 0,0 UV-I 84 W/m 4,3 C 8,3 C 6,4 km/h (2 Bft)
07/12/2023 14:24 8,3 C 76 % 1011,5 hPa 0,0 mm 3,7 km/h (1 Bft) S 191 0 min 0,0 UV-I 88 W/m 4,3 C 8,3 C 8,0 km/h (2 Bft)
07/12/2023 14:21 8,2 C 76 % 1011,5 hPa 0,0 mm 5,8 km/h (2 Bft) S-SE 149 0 min 0,0 UV-I 90 W/m 4,2 C 7,5 C 9,7 km/h (2 Bft)
07/12/2023 14:18 8,2 C 76 % 1011,6 hPa 0,0 mm 6,9 km/h (2 Bft) S 182 0 min 0,0 UV-I 95 W/m 4,2 C 7,2 C 11,3 km/h (2 Bft)
07/12/2023 14:15 8,2 C 75 % 1011,6 hPa 0,0 mm 6,3 km/h (2 Bft) S-SO 209 0 min 0,0 UV-I 100 W/m 4,0 C 7,3 C 12,9 km/h (3 Bft)
07/12/2023 14:12 8,2 C 75 % 1011,6 hPa 0,0 mm 6,0 km/h (2 Bft) SE 137 0 min 0,0 UV-I 100 W/m 4,0 C 7,4 C 11,3 km/h (2 Bft)
07/12/2023 14:09 8,2 C 75 % 1011,6 hPa 0,0 mm 6,2 km/h (2 Bft) SO 220 0 min 0,0 UV-I 105 W/m 4,0 C 7,3 C 12,9 km/h (3 Bft)
07/12/2023 14:06 8,2 C 75 % 1011,5 hPa 0,0 mm 4,2 km/h (1 Bft) S 169 0 min 0,0 UV-I 113 W/m 4,0 C 8,2 C 12,9 km/h (3 Bft)
07/12/2023 14:03 8,1 C 75 % 1011,4 hPa 0,0 mm 7,6 km/h (2 Bft) S 189 0 min 0,0 UV-I 123 W/m 3,9 C 6,9 C 14,5 km/h (3 Bft)
07/12/2023 14:00 8,1 C 75 % 1011,4 hPa 0,0 mm 7,6 km/h (2 Bft) S 171 0 min 0,0 UV-I 125 W/m 3,9 C 6,9 C 16,1 km/h (3 Bft)
07/12/2023 13:57 8,0 C 75 % 1011,5 hPa 0,0 mm 10,9 km/h (2 Bft) S 180 0 min 0,0 UV-I 134 W/m 3,8 C 6,1 C 19,3 km/h (3 Bft)
07/12/2023 13:54 8,1 C 75 % 1011,4 hPa 0,0 mm 8,5 km/h (2 Bft) S 174 0 min 0,0 UV-I 144 W/m 3,9 C 6,7 C 20,9 km/h (4 Bft)
07/12/2023 13:51 8,0 C 74 % 1011,4 hPa 0,0 mm 8,5 km/h (2 Bft) S 172 0 min 0,5 UV-I 146 W/m 3,7 C 6,5 C 14,5 km/h (3 Bft)
07/12/2023 13:48 8,0 C 75 % 1011,3 hPa 0,0 mm 7,7 km/h (2 Bft) S-SE 150 0 min 0,5 UV-I 144 W/m 3,8 C 6,7 C 19,3 km/h (3 Bft)
07/12/2023 13:45 7,9 C 75 % 1011,4 hPa 0,0 mm 6,0 km/h (2 Bft) SE 143 0 min 0,5 UV-I 149 W/m 3,7 C 7,1 C 14,5 km/h (3 Bft)
07/12/2023 13:42 7,9 C 75 % 1011,3 hPa 0,0 mm 9,1 km/h (2 Bft) S-SE 152 0 min 0,5 UV-I 148 W/m 3,7 C 6,3 C 25,7 km/h (4 Bft)
07/12/2023 13:39 7,9 C 74 % 1011,4 hPa 0,0 mm 10,7 km/h (2 Bft) S 170 0 min 0,5 UV-I 155 W/m 3,6 C 6,0 C 22,5 km/h (4 Bft)
07/12/2023 13:36 7,9 C 76 % 1011,5 hPa 0,0 mm 7,3 km/h (2 Bft) S 189 0 min 0,6 UV-I 174 W/m 3,9 C 6,7 C 17,7 km/h (3 Bft)
07/12/2023 13:33 7,9 C 74 % 1011,6 hPa 0,0 mm 8,7 km/h (2 Bft) E 91 0 min 0,5 UV-I 185 W/m 3,6 C 6,4 C 19,3 km/h (3 Bft)
07/12/2023 13:30 7,8 C 75 % 1011,7 hPa 0,0 mm 7,6 km/h (2 Bft) S 174 0 min 0,5 UV-I 160 W/m 3,7 C 6,5 C 14,5 km/h (3 Bft)
07/12/2023 13:27 7,8 C 75 % 1011,7 hPa 0,0 mm 7,8 km/h (2 Bft) SE 134 0 min 0,5 UV-I 165 W/m 3,7 C 6,5 C 19,3 km/h (3 Bft)
07/12/2023 13:24 7,8 C 75 % 1011,7 hPa 0,0 mm 7,4 km/h (2 Bft) S-SE 158 0 min 0,6 UV-I 188 W/m 3,7 C 6,6 C 16,1 km/h (3 Bft)
07/12/2023 13:21 7,7 C 75 % 1011,6 hPa 0,0 mm 7,2 km/h (2 Bft) S-SE 164 0 min 0,6 UV-I 188 W/m 3,6 C 6,5 C 17,7 km/h (3 Bft)
07/12/2023 13:18 7,7 C 76 % 1011,6 hPa 0,0 mm 5,7 km/h (1 Bft) SE 138 0 min 0,6 UV-I 185 W/m 3,7 C 6,9 C 11,3 km/h (2 Bft)
07/12/2023 13:15 7,6 C 75 % 1011,9 hPa 0,0 mm 5,3 km/h (1 Bft) E-SE 118 0 min 0,6 UV-I 176 W/m 3,5 C 6,9 C 11,3 km/h (2 Bft)
07/12/2023 13:12 7,6 C 76 % 1012,1 hPa 0,0 mm 5,4 km/h (1 Bft) S 177 0 min 0,6 UV-I 197 W/m 3,6 C 6,9 C 11,3 km/h (2 Bft)
07/12/2023 13:09 7,4 C 75 % 1012,1 hPa 0,0 mm 5,3 km/h (1 Bft) S-SE 160 0 min 0,6 UV-I 178 W/m 3,3 C 6,7 C 11,3 km/h (2 Bft)
07/12/2023 13:06 7,4 C 76 % 1012,2 hPa 0,0 mm 8,6 km/h (2 Bft) E-SE 118 0 min 0,6 UV-I 185 W/m 3,5 C 5,8 C 14,5 km/h (3 Bft)
07/12/2023 13:03 7,3 C 75 % 1012,2 hPa 0,0 mm 8,9 km/h (2 Bft) SE 143 0 min 0,6 UV-I 185 W/m 3,2 C 5,6 C 19,3 km/h (3 Bft)
07/12/2023 13:00 7,3 C 75 % 1012,3 hPa 0,0 mm 8,0 km/h (2 Bft) S 178 0 min 0,6 UV-I 183 W/m 3,2 C 5,8 C 17,7 km/h (3 Bft)
07/12/2023 12:57 7,4 C 76 % 1012,3 hPa 0,0 mm 6,9 km/h (2 Bft) SE 137 0 min 0,6 UV-I 192 W/m 3,5 C 6,2 C 12,9 km/h (3 Bft)
07/12/2023 12:54 7,3 C 76 % 1012,3 hPa 0,0 mm 8,8 km/h (2 Bft) S 170 0 min 0,6 UV-I 204 W/m 3,4 C 5,7 C 19,3 km/h (3 Bft)
07/12/2023 12:51 7,2 C 76 % 1012,4 hPa 0,0 mm 8,7 km/h (2 Bft) S-SE 158 0 min 0,6 UV-I 213 W/m 3,3 C 5,6 C 16,1 km/h (3 Bft)
07/12/2023 12:48 7,1 C 75 % 1012,5 hPa 0,0 mm 9,4 km/h (2 Bft) E-SE 117 3 min 0,6 UV-I 227 W/m 3,0 C 5,3 C 17,7 km/h (3 Bft)
07/12/2023 12:45 7,1 C 76 % 1012,5 hPa 0,0 mm 8,5 km/h (2 Bft) O-SO 245 3 min 0,6 UV-I 234 W/m 3,2 C 5,5 C 16,1 km/h (3 Bft)
07/12/2023 12:42 6,9 C 77 % 1012,6 hPa 0,0 mm 7,1 km/h (2 Bft) E-NE 77 3 min 0,6 UV-I 223 W/m 3,2 C 5,6 C 12,9 km/h (3 Bft)
07/12/2023 12:39 6,9 C 77 % 1012,8 hPa 0,0 mm 6,2 km/h (2 Bft) SE 136 0 min 0,5 UV-I 200 W/m 3,2 C 5,8 C 12,9 km/h (3 Bft)
07/12/2023 12:36 6,8 C 77 % 1012,8 hPa 0,0 mm 8,4 km/h (2 Bft) SE 125 0 min 0,5 UV-I 169 W/m 3,1 C 5,2 C 16,1 km/h (3 Bft)
07/12/2023 12:33 6,7 C 77 % 1012,9 hPa 0,0 mm 10,7 km/h (2 Bft) S-SE 152 0 min 0,5 UV-I 165 W/m 3,0 C 4,6 C 19,3 km/h (3 Bft)
07/12/2023 12:30 6,7 C 76 % 1012,9 hPa 0,0 mm 10,1 km/h (2 Bft) S-SE 158 0 min 0,5 UV-I 172 W/m 2,8 C 4,7 C 19,3 km/h (3 Bft)
07/12/2023 12:27 6,6 C 77 % 1012,9 hPa 0,0 mm 7,1 km/h (2 Bft) S-SE 152 0 min 0,6 UV-I 188 W/m 2,9 C 5,2 C 29,0 km/h (5 Bft)
07/12/2023 12:24 6,6 C 77 % 1012,9 hPa 0,0 mm 9,6 km/h (2 Bft) S-SO 197 0 min 0,6 UV-I 185 W/m 2,9 C 4,7 C 16,1 km/h (3 Bft)
07/12/2023 12:21 6,5 C 78 % 1012,9 hPa 0,0 mm 8,6 km/h (2 Bft) S-SE 149 0 min 0,6 UV-I 183 W/m 2,9 C 4,8 C 14,5 km/h (3 Bft)
07/12/2023 12:18 6,4 C 77 % 1013,1 hPa 0,0 mm 9,5 km/h (2 Bft) S-SE 166 3 min 0,6 UV-I 248 W/m 2,7 C 4,4 C 20,9 km/h (4 Bft)
07/12/2023 12:15 6,3 C 77 % 1013,1 hPa 0,0 mm 7,9 km/h (2 Bft) E-NE 68 3 min 0,6 UV-I 213 W/m 2,6 C 4,7 C 16,1 km/h (3 Bft)
07/12/2023 12:12 6,2 C 78 % 1013,2 hPa 0,0 mm 7,3 km/h (2 Bft) SE 129 0 min 0,6 UV-I 179 W/m 2,7 C 4,7 C 12,9 km/h (3 Bft)
07/12/2023 12:09 6,1 C 78 % 1013,4 hPa 0,0 mm 5,1 km/h (1 Bft) NE 41 0 min 0,5 UV-I 181 W/m 2,6 C 5,3 C 14,5 km/h (3 Bft)
07/12/2023 12:06 5,9 C 79 % 1013,5 hPa 0,0 mm 4,5 km/h (1 Bft) S-SE 161 0 min 0,5 UV-I 172 W/m 2,5 C 5,9 C 11,3 km/h (2 Bft)
07/12/2023 12:03 5,8 C 79 % 1013,5 hPa 0,0 mm 2,9 km/h (1 Bft) O-NO 294 0 min 0,5 UV-I 156 W/m 2,4 C 5,8 C 9,7 km/h (2 Bft)
07/12/2023 12:00 5,7 C 80 % 1013,5 hPa 0,0 mm 4,7 km/h (1 Bft) O-NO 301 0 min 0,5 UV-I 144 W/m 2,5 C 5,0 C 12,9 km/h (3 Bft)
07/12/2023 11:57 5,6 C 79 % 1013,5 hPa 0,0 mm 4,3 km/h (1 Bft) S 177 0 min 0,0 UV-I 130 W/m 2,3 C 5,6 C 9,7 km/h (2 Bft)
07/12/2023 11:54 5,5 C 80 % 1013,8 hPa 0,0 mm 4,7 km/h (1 Bft) E 100 0 min 0,0 UV-I 116 W/m 2,3 C 4,8 C 14,5 km/h (3 Bft)
07/12/2023 11:51 5,4 C 80 % 1013,9 hPa 0,0 mm 3,7 km/h (1 Bft) N-NE 19 0 min 0,0 UV-I 102 W/m 2,2 C 5,4 C 9,7 km/h (2 Bft)
07/12/2023 11:48 5,3 C 80 % 1013,9 hPa 0,0 mm 5,7 km/h (1 Bft) E-SE 113 0 min 0,0 UV-I 83 W/m 2,1 C 4,2 C 9,7 km/h (2 Bft)
07/12/2023 11:45 5,2 C 80 % 1014,1 hPa 0,0 mm 4,3 km/h (1 Bft) O-SO 243 0 min 0,0 UV-I 74 W/m 2,0 C 5,2 C 11,3 km/h (2 Bft)
07/12/2023 11:42 5,2 C 81 % 1014,2 hPa 0,0 mm 3,7 km/h (1 Bft) E-NE 77 0 min 0,0 UV-I 69 W/m 2,2 C 5,2 C 9,7 km/h (2 Bft)
07/12/2023 11:39 5,2 C 81 % 1014,2 hPa 0,0 mm 2,1 km/h (1 Bft) E 88 0 min 0,0 UV-I 65 W/m 2,2 C 5,2 C 4,8 km/h (1 Bft)
07/12/2023 11:36 5,2 C 81 % 1014,3 hPa 0,0 mm 2,2 km/h (1 Bft) E-NE 62 0 min 0,0 UV-I 63 W/m 2,2 C 5,2 C 6,4 km/h (2 Bft)
07/12/2023 11:33 5,1 C 81 % 1014,3 hPa 0,0 mm 2,2 km/h (1 Bft) E-NE 78 0 min 0,0 UV-I 60 W/m 2,1 C 5,1 C 6,4 km/h (2 Bft)
07/12/2023 11:30 5,1 C 81 % 1014,4 hPa 0,0 mm 1,5 km/h (1 Bft) E-NE 58 0 min 0,0 UV-I 62 W/m 2,1 C 5,1 C 8,0 km/h (2 Bft)
07/12/2023 11:27 5,1 C 81 % 1014,4 hPa 0,0 mm 2,3 km/h (1 Bft) NE 51 0 min 0,0 UV-I 69 W/m 2,1 C 5,1 C 9,7 km/h (2 Bft)
07/12/2023 11:24 5,0 C 81 % 1014,5 hPa 0,0 mm 2,3 km/h (1 Bft) E-NE 73 0 min 0,0 UV-I 70 W/m 2,0 C 5,0 C 6,4 km/h (2 Bft)
07/12/2023 11:21 4,9 C 81 % 1014,6 hPa 0,0 mm 5,3 km/h (1 Bft) E 85 0 min 0,0 UV-I 72 W/m 1,9 C 3,9 C 9,7 km/h (2 Bft)
07/12/2023 11:18 4,9 C 82 % 1014,7 hPa 0,0 mm 4,3 km/h (1 Bft) S-SE 151 0 min 0,0 UV-I 72 W/m 2,1 C 4,9 C 11,3 km/h (2 Bft)
07/12/2023 11:15 4,9 C 82 % 1014,7 hPa 0,0 mm 1,3 km/h (1 Bft) E 89 0 min 0,0 UV-I 74 W/m 2,1 C 4,9 C 8,0 km/h (2 Bft)
07/12/2023 11:12 4,9 C 83 % 1014,7 hPa 0,0 mm 4,8 km/h (1 Bft) NE 36 0 min 0,0 UV-I 72 W/m 2,3 C 4,0 C 14,5 km/h (3 Bft)
07/12/2023 11:09 4,9 C 82 % 1014,8 hPa 0,0 mm 2,4 km/h (1 Bft) E-NE 76 0 min 0,0 UV-I 69 W/m 2,1 C 4,9 C 6,4 km/h (2 Bft)
07/12/2023 11:06 4,8 C 83 % 1014,9 hPa 0,0 mm 3,5 km/h (1 Bft) E-SE 114 0 min 0,0 UV-I 63 W/m 2,2 C 4,8 C 8,0 km/h (2 Bft)
07/12/2023 11:03 4,8 C 83 % 1014,8 hPa 0,0 mm 2,5 km/h (1 Bft) E-SE 110 0 min 0,0 UV-I 60 W/m 2,2 C 4,8 C 8,0 km/h (2 Bft)
07/12/2023 11:00 4,8 C 83 % 1014,7 hPa 0,0 mm 1,1 km/h (1 Bft) E-NE 78 0 min 0,0 UV-I 58 W/m 2,2 C 4,8 C 6,4 km/h (2 Bft)
07/12/2023 10:57 4,7 C 83 % 1014,7 hPa 0,0 mm 5,4 km/h (1 Bft) E-NE 68 0 min 0,0 UV-I 54 W/m 2,1 C 3,6 C 11,3 km/h (2 Bft)
07/12/2023 10:54 4,7 C 84 % 1014,8 hPa 0,0 mm 4,8 km/h (1 Bft) SE 133 0 min 0,0 UV-I 53 W/m 2,2 C 3,8 C 12,9 km/h (3 Bft)
07/12/2023 10:51 4,7 C 84 % 1014,7 hPa 0,0 mm 3,7 km/h (1 Bft) N-NE 13 0 min 0,0 UV-I 51 W/m 2,2 C 4,7 C 11,3 km/h (2 Bft)
07/12/2023 10:48 4,7 C 85 % 1014,8 hPa 0,0 mm 1,9 km/h (1 Bft) S 170 0 min 0,0 UV-I 51 W/m 2,4 C 4,7 C 8,0 km/h (2 Bft)
07/12/2023 10:45 4,6 C 85 % 1014,7 hPa 0,0 mm 2,9 km/h (1 Bft) E-SE 119 0 min 0,0 UV-I 51 W/m 2,3 C 4,6 C 9,7 km/h (2 Bft)
07/12/2023 10:42 4,6 C 85 % 1014,7 hPa 0,0 mm 5,8 km/h (2 Bft) N 11 0 min 0,0 UV-I 49 W/m 2,3 C 3,3 C 14,5 km/h (3 Bft)
07/12/2023 10:39 4,6 C 86 % 1014,6 hPa 0,0 mm 3,1 km/h (1 Bft) O-SO 246 0 min 0,0 UV-I 51 W/m 2,5 C 4,6 C 9,7 km/h (2 Bft)
07/12/2023 10:36 4,4 C 86 % 1014,4 hPa 0,0 mm 3,6 km/h (1 Bft) E-NE 74 0 min 0,0 UV-I 53 W/m 2,3 C 4,4 C 9,7 km/h (2 Bft)
07/12/2023 10:33 4,4 C 86 % 1014,4 hPa 0,0 mm 1,6 km/h (1 Bft) NE 52 0 min 0,0 UV-I 56 W/m 2,3 C 4,4 C 8,0 km/h (2 Bft)
07/12/2023 10:30 4,4 C 87 % 1014,5 hPa 0,0 mm 3,1 km/h (1 Bft) E-SE 105 0 min 0,0 UV-I 60 W/m 2,4 C 4,4 C 11,3 km/h (2 Bft)
07/12/2023 10:27 4,3 C 87 % 1014,4 hPa 0,0 mm 1,7 km/h (1 Bft) N-NO 344 0 min 0,0 UV-I 62 W/m 2,3 C 4,3 C 6,4 km/h (2 Bft)
07/12/2023 10:24 4,3 C 87 % 1014,4 hPa 0,0 mm 2,1 km/h (1 Bft) E 95 0 min 0,0 UV-I 63 W/m 2,3 C 4,3 C 4,8 km/h (1 Bft)
07/12/2023 10:21 4,2 C 88 % 1014,4 hPa 0,0 mm 3,6 km/h (1 Bft) S 174 0 min 0,0 UV-I 65 W/m 2,4 C 4,2 C 8,0 km/h (2 Bft)
07/12/2023 10:18 4,1 C 88 % 1014,4 hPa 0,0 mm 3,1 km/h (1 Bft) S-SO 211 0 min 0,0 UV-I 67 W/m 2,3 C 4,1 C 11,3 km/h (2 Bft)
07/12/2023 10:15 4,1 C 89 % 1014,4 hPa 0,0 mm 3,4 km/h (1 Bft) E-NE 73 0 min 0,0 UV-I 70 W/m 2,5 C 4,1 C 11,3 km/h (2 Bft)
07/12/2023 10:12 4,0 C 89 % 1014,4 hPa 0,0 mm 4,6 km/h (1 Bft) S 184 0 min 0,0 UV-I 65 W/m 2,4 C 3,1 C 11,3 km/h (2 Bft)
07/12/2023 10:09 4,0 C 90 % 1014,4 hPa 0,0 mm 3,7 km/h (1 Bft) E-NE 73 0 min 0,0 UV-I 58 W/m 2,5 C 4,0 C 9,7 km/h (2 Bft)
07/12/2023 10:06 3,9 C 90 % 1014,5 hPa 0,0 mm 2,5 km/h (1 Bft) N 354 0 min 0,0 UV-I 63 W/m 2,4 C 3,9 C 8,0 km/h (2 Bft)
07/12/2023 10:03 3,8 C 91 % 1014,5 hPa 0,0 mm 2,2 km/h (1 Bft) S-SO 193 0 min 0,0 UV-I 63 W/m 2,5 C 3,8 C 6,4 km/h (2 Bft)
07/12/2023 10:00 3,7 C 91 % 1014,4 hPa 0,0 mm 3,9 km/h (1 Bft) E 93 0 min 0,0 UV-I 53 W/m 2,4 C 3,7 C 9,7 km/h (2 Bft)
07/12/2023 09:57 3,7 C 91 % 1014,5 hPa 0,0 mm 3,6 km/h (1 Bft) E 86 0 min 0,0 UV-I 42 W/m 2,4 C 3,7 C 8,0 km/h (2 Bft)
07/12/2023 09:54 3,7 C 91 % 1014,5 hPa 0,0 mm 2,9 km/h (1 Bft) S-SO 199 0 min 0,0 UV-I 39 W/m 2,4 C 3,7 C 8,0 km/h (2 Bft)
07/12/2023 09:51 3,6 C 92 % 1014,6 hPa 0,0 mm 4,2 km/h (1 Bft) S-SE 156 0 min 0,0 UV-I 37 W/m 2,4 C 3,6 C 11,3 km/h (2 Bft)
07/12/2023 09:48 3,5 C 92 % 1014,7 hPa 0,0 mm 3,3 km/h (1 Bft) E 89 0 min 0,0 UV-I 39 W/m 2,3 C 3,5 C 9,7 km/h (2 Bft)
07/12/2023 09:45 3,4 C 92 % 1014,7 hPa 0,0 mm 4,5 km/h (1 Bft) SE 136 0 min 0,0 UV-I 46 W/m 2,2 C 3,4 C 11,3 km/h (2 Bft)
07/12/2023 09:42 3,4 C 93 % 1014,7 hPa 0,0 mm 4,0 km/h (1 Bft) E-NE 66 0 min 0,0 UV-I 40 W/m 2,4 C 3,4 C 11,3 km/h (2 Bft)
07/12/2023 09:39 3,3 C 93 % 1014,7 hPa 0,0 mm 4,3 km/h (1 Bft) S-SO 204 0 min 0,0 UV-I 30 W/m 2,3 C 3,3 C 9,7 km/h (2 Bft)
07/12/2023 09:36 3,3 C 93 % 1014,8 hPa 0,0 mm 4,9 km/h (1 Bft) E-NE 76 0 min 0,0 UV-I 28 W/m 2,3 C 2,2 C 11,3 km/h (2 Bft)
07/12/2023 09:33 3,3 C 93 % 1014,8 hPa 0,0 mm 4,3 km/h (1 Bft) E-NE 76 0 min 0,0 UV-I 32 W/m 2,3 C 3,3 C 12,9 km/h (3 Bft)
07/12/2023 09:30 3,3 C 93 % 1015,0 hPa 0,0 mm 5,3 km/h (1 Bft) SO 222 0 min 0,0 UV-I 32 W/m 2,3 C 2,0 C 12,9 km/h (3 Bft)
07/12/2023 09:27 3,2 C 93 % 1015,1 hPa 0,0 mm 4,3 km/h (1 Bft) E-SE 108 0 min 0,0 UV-I 33 W/m 2,2 C 3,2 C 9,7 km/h (2 Bft)
07/12/2023 09:24 3,2 C 93 % 1015,1 hPa 0,0 mm 4,5 km/h (1 Bft) S-SE 156 0 min 0,0 UV-I 35 W/m 2,2 C 3,2 C 11,3 km/h (2 Bft)
07/12/2023 09:21 3,1 C 93 % 1015,2 hPa 0,0 mm 6,0 km/h (2 Bft) S-SO 195 0 min 0,0 UV-I 33 W/m 2,1 C 1,5 C 14,5 km/h (3 Bft)
07/12/2023 09:18 3,1 C 93 % 1015,1 hPa 0,0 mm 3,9 km/h (1 Bft) E 93 0 min 0,0 UV-I 28 W/m 2,1 C 3,1 C 11,3 km/h (2 Bft)
07/12/2023 09:15 3,0 C 94 % 1015,1 hPa 0,0 mm 5,7 km/h (1 Bft) S-SE 152 0 min 0,0 UV-I 23 W/m 2,1 C 1,5 C 16,1 km/h (3 Bft)
07/12/2023 09:12 2,9 C 94 % 1015,1 hPa 0,0 mm 4,5 km/h (1 Bft) E 87 0 min 0,0 UV-I 19 W/m 2,0 C 2,9 C 12,9 km/h (3 Bft)
07/12/2023 09:09 2,9 C 94 % 1015,1 hPa 0,0 mm 5,4 km/h (1 Bft) E-NE 64 0 min 0,0 UV-I 18 W/m 2,0 C 1,5 C 12,9 km/h (3 Bft)
07/12/2023 09:06 2,9 C 94 % 1015,1 hPa 0,0 mm 5,2 km/h (1 Bft) E-NE 72 0 min 0,0 UV-I 16 W/m 2,0 C 1,6 C 19,3 km/h (3 Bft)
07/12/2023 09:03 2,9 C 94 % 1015,2 hPa 0,0 mm 4,6 km/h (1 Bft) E-NE 63 0 min 0,0 UV-I 14 W/m 2,0 C 1,9 C 11,3 km/h (2 Bft)
07/12/2023 09:00 2,7 C 94 % 1015,2 hPa 0,0 mm 6,1 km/h (2 Bft) E-SE 123 0 min 0,0 UV-I 12 W/m 1,8 C 1,0 C 17,7 km/h (3 Bft)
07/12/2023 08:57 2,7 C 94 % 1015,3 hPa 0,0 mm 4,6 km/h (1 Bft) SE 131 0 min 0,0 UV-I 11 W/m 1,8 C 1,7 C 11,3 km/h (2 Bft)
07/12/2023 08:54 2,6 C 94 % 1015,3 hPa 0,0 mm 2,5 km/h (1 Bft) SE 143 0 min 0,0 UV-I 11 W/m 1,7 C 2,6 C 11,3 km/h (2 Bft)
07/12/2023 08:51 2,6 C 94 % 1015,2 hPa 0,0 mm 3,7 km/h (1 Bft) S-SE 149 0 min 0,0 UV-I 11 W/m 1,7 C 2,6 C 9,7 km/h (2 Bft)
07/12/2023 08:48 2,6 C 94 % 1015,3 hPa 0,0 mm 4,2 km/h (1 Bft) SE 134 0 min 0,0 UV-I 9 W/m 1,7 C 2,6 C 9,7 km/h (2 Bft)
07/12/2023 08:45 2,4 C 94 % 1015,3 hPa 0,0 mm 5,5 km/h (1 Bft) E-NE 75 0 min 0,0 UV-I 9 W/m 1,5 C 0,9 C 9,7 km/h (2 Bft)
07/12/2023 08:42 2,4 C 94 % 1015,4 hPa 0,0 mm 3,2 km/h (1 Bft) E-SE 120 0 min 0,0 UV-I 7 W/m 1,5 C 2,4 C 11,3 km/h (2 Bft)
07/12/2023 08:39 2,4 C 94 % 1015,3 hPa 0,0 mm 4,1 km/h (1 Bft) E 79 0 min 0,0 UV-I 5 W/m 1,5 C 2,4 C 11,3 km/h (2 Bft)
07/12/2023 08:36 2,4 C 94 % 1015,3 hPa 0,0 mm 2,1 km/h (1 Bft) E-SE 105 0 min 0,0 UV-I 0 W/m 1,5 C 2,4 C 6,4 km/h (2 Bft)
07/12/2023 08:33 2,4 C 94 % 1015,4 hPa 0,0 mm 5,1 km/h (1 Bft) E-SE 105 0 min 0,0 UV-I 0 W/m 1,5 C 1,1 C 16,1 km/h (3 Bft)
07/12/2023 08:30 2,3 C 94 % 1015,4 hPa 0,0 mm 5,6 km/h (1 Bft) E-NE 78 0 min 0,0 UV-I 0 W/m 1,4 C 0,8 C 19,3 km/h (3 Bft)
07/12/2023 08:27 2,3 C 94 % 1015,4 hPa 0,0 mm 4,4 km/h (1 Bft) E 97 0 min 0,0 UV-I 0 W/m 1,4 C 2,3 C 14,5 km/h (3 Bft)
07/12/2023 08:24 2,3 C 94 % 1015,4 hPa 0,0 mm 6,1 km/h (2 Bft) E-SE 111 0 min 0,0 UV-I 0 W/m 1,4 C 0,6 C 12,9 km/h (3 Bft)
07/12/2023 08:21 2,2 C 94 % 1015,5 hPa 0,0 mm 4,7 km/h (1 Bft) S 172 0 min 0,0 UV-I 0 W/m 1,3 C 1,0 C 9,7 km/h (2 Bft)
07/12/2023 08:18 2,2 C 94 % 1015,4 hPa 0,0 mm 3,1 km/h (1 Bft) E 96 0 min 0,0 UV-I 0 W/m 1,3 C 2,2 C 11,3 km/h (2 Bft)
07/12/2023 08:15 2,2 C 94 % 1015,6 hPa 0,0 mm 4,2 km/h (1 Bft) E 101 0 min 0,0 UV-I 5 W/m 1,3 C 2,2 C 11,3 km/h (2 Bft)
07/12/2023 08:12 2,1 C 94 % 1015,6 hPa 0,0 mm 4,4 km/h (1 Bft) E-SE 115 0 min 0,0 UV-I 0 W/m 1,2 C 2,1 C 11,3 km/h (2 Bft)
07/12/2023 08:09 2,1 C 94 % 1015,7 hPa 0,0 mm 3,6 km/h (1 Bft) E-NE 66 0 min 0,0 UV-I 0 W/m 1,2 C 2,1 C 9,7 km/h (2 Bft)
07/12/2023 08:06 2,1 C 94 % 1015,7 hPa 0,0 mm 4,0 km/h (1 Bft) E 93 0 min 0,0 UV-I 0 W/m 1,2 C 2,1 C 11,3 km/h (2 Bft)
07/12/2023 08:03 2,1 C 94 % 1015,8 hPa 0,0 mm 3,5 km/h (1 Bft) E-SE 106 0 min 0,0 UV-I 0 W/m 1,2 C 2,1 C 11,3 km/h (2 Bft)
07/12/2023 08:00 2,1 C 94 % 1016,0 hPa 0,0 mm 1,0 km/h (0 Bft) E 95 0 min 0,0 UV-I 0 W/m 1,2 C 2,1 C 4,8 km/h (1 Bft)
07/12/2023 07:57 1,9 C 94 % 1016,1 hPa 0,0 mm 2,6 km/h (1 Bft) NE 52 0 min 0,0 UV-I 0 W/m 1,0 C 1,9 C 8,0 km/h (2 Bft)
07/12/2023 07:54 1,9 C 94 % 1016,0 hPa 0,0 mm 0,8 km/h (0 Bft) E 92 0 min 0,0 UV-I 0 W/m 1,0 C 1,9 C 6,4 km/h (2 Bft)
07/12/2023 07:51 1,9 C 94 % 1015,9 hPa 0,0 mm 4,2 km/h (1 Bft) NE 49 0 min 0,0 UV-I 0 W/m 1,0 C 1,9 C 8,0 km/h (2 Bft)
07/12/2023 07:48 1,8 C 94 % 1015,9 hPa 0,0 mm 3,0 km/h (1 Bft) E 87 0 min 0,0 UV-I 0 W/m 0,9 C 1,8 C 8,0 km/h (2 Bft)
07/12/2023 07:45 1,8 C 94 % 1016,0 hPa 0,0 mm 0,5 km/h (0 Bft) SO 233 0 min 0,0 UV-I 0 W/m 0,9 C 1,8 C 4,8 km/h (1 Bft)
07/12/2023 07:42 1,7 C 94 % 1016,1 hPa 0,0 mm 1,9 km/h (1 Bft) S-SE 149 0 min 0,0 UV-I 0 W/m 0,8 C 1,7 C 4,8 km/h (1 Bft)
07/12/2023 07:39 1,7 C 94 % 1016,0 hPa 0,0 mm 1,1 km/h (1 Bft) E 94 0 min 0,0 UV-I 0 W/m 0,8 C 1,7 C 4,8 km/h (1 Bft)
07/12/2023 07:36 1,6 C 94 % 1016,1 hPa 0,0 mm 1,9 km/h (1 Bft) E 90 0 min 0,0 UV-I 0 W/m 0,7 C 1,6 C 4,8 km/h (1 Bft)
07/12/2023 07:33 1,6 C 94 % 1016,2 hPa 0,0 mm 2,2 km/h (1 Bft) E 85 0 min 0,0 UV-I 0 W/m 0,7 C 1,6 C 6,4 km/h (2 Bft)
07/12/2023 07:30 1,6 C 94 % 1016,0 hPa 0,0 mm 0,7 km/h (0 Bft) NE 50 0 min 0,0 UV-I 0 W/m 0,7 C 1,6 C 3,2 km/h (1 Bft)
07/12/2023 07:27 1,5 C 94 % 1016,0 hPa 0,0 mm 1,8 km/h (1 Bft) E 93 0 min 0,0 UV-I 0 W/m 0,6 C 1,5 C 4,8 km/h (1 Bft)
07/12/2023 07:24 1,5 C 94 % 1015,9 hPa 0,0 mm 0,8 km/h (0 Bft) E 100 0 min 0,0 UV-I 0 W/m 0,6 C 1,5 C 3,2 km/h (1 Bft)
07/12/2023 07:21 1,5 C 94 % 1015,9 hPa 0,0 mm 1,5 km/h (1 Bft) E-SE 108 0 min 0,0 UV-I 0 W/m 0,6 C 1,5 C 4,8 km/h (1 Bft)
07/12/2023 07:18 1,5 C 94 % 1015,8 hPa 0,0 mm 1,2 km/h (1 Bft) E-SE 108 0 min 0,0 UV-I 0 W/m 0,6 C 1,5 C 3,2 km/h (1 Bft)
07/12/2023 07:15 1,5 C 94 % 1015,8 hPa 0,0 mm 3,4 km/h (1 Bft) E-SE 110 0 min 0,0 UV-I 0 W/m 0,6 C 1,5 C 8,0 km/h (2 Bft)
07/12/2023 07:12 1,5 C 94 % 1015,9 hPa 0,0 mm 2,9 km/h (1 Bft) E 100 0 min 0,0 UV-I 0 W/m 0,6 C 1,5 C 9,7 km/h (2 Bft)
07/12/2023 07:09 1,4 C 94 % 1015,9 hPa 0,0 mm 1,8 km/h (1 Bft) E 87 0 min 0,0 UV-I 0 W/m 0,5 C 1,4 C 9,7 km/h (2 Bft)
07/12/2023 07:06 1,4 C 94 % 1015,9 hPa 0,0 mm 2,2 km/h (1 Bft) E 86 0 min 0,0 UV-I 0 W/m 0,5 C 1,4 C 6,4 km/h (2 Bft)
07/12/2023 07:03 1,4 C 94 % 1016,0 hPa 0,0 mm 2,7 km/h (1 Bft) E 97 0 min 0,0 UV-I 0 W/m 0,5 C 1,4 C 8,0 km/h (2 Bft)
07/12/2023 07:00 1,4 C 94 % 1016,1 hPa 0,0 mm 0,7 km/h (0 Bft) E-SE 103 0 min 0,0 UV-I 0 W/m 0,5 C 1,4 C 6,4 km/h (2 Bft)
07/12/2023 06:57 1,4 C 94 % 1016,2 hPa 0,0 mm 1,9 km/h (1 Bft) E-SE 105 0 min 0,0 UV-I 0 W/m 0,5 C 1,4 C 8,0 km/h (2 Bft)
07/12/2023 06:54 1,3 C 94 % 1016,2 hPa 0,0 mm 4,9 km/h (1 Bft) E-SE 117 0 min 0,0 UV-I 0 W/m 0,4 C -0,1 C 8,0 km/h (2 Bft)
07/12/2023 06:51 1,3 C 94 % 1016,3 hPa 0,0 mm 3,5 km/h (1 Bft) E 89 0 min 0,0 UV-I 0 W/m 0,4 C 1,3 C 9,7 km/h (2 Bft)
07/12/2023 06:48 1,3 C 94 % 1016,4 hPa 0,0 mm 2,9 km/h (1 Bft) E-NE 72 0 min 0,0 UV-I 0 W/m 0,4 C 1,3 C 9,7 km/h (2 Bft)
07/12/2023 06:45 1,3 C 94 % 1016,3 hPa 0,0 mm 2,6 km/h (1 Bft) E 101 0 min 0,0 UV-I 0 W/m 0,4 C 1,3 C 8,0 km/h (2 Bft)
07/12/2023 06:42 1,3 C 94 % 1016,3 hPa 0,0 mm 4,9 km/h (1 Bft) E-NE 66 0 min 0,0 UV-I 0 W/m 0,4 C -0,1 C 9,7 km/h (2 Bft)
07/12/2023 06:39 1,3 C 94 % 1016,3 hPa 0,0 mm 3,6 km/h (1 Bft) E 97 0 min 0,0 UV-I 0 W/m 0,4 C 1,3 C 9,7 km/h (2 Bft)
07/12/2023 06:36 1,2 C 94 % 1016,3 hPa 0,0 mm 4,7 km/h (1 Bft) E-SE 103 0 min 0,0 UV-I 0 W/m 0,3 C -0,1 C 11,3 km/h (2 Bft)
07/12/2023 06:33 1,2 C 94 % 1016,2 hPa 0,0 mm 4,0 km/h (1 Bft) E-SE 106 0 min 0,0 UV-I 0 W/m 0,3 C 1,2 C 9,7 km/h (2 Bft)
07/12/2023 06:30 1,2 C 94 % 1016,2 hPa 0,0 mm 5,3 km/h (1 Bft) E-SE 103 0 min 0,0 UV-I 0 W/m 0,3 C -0,4 C 9,7 km/h (2 Bft)
07/12/2023 06:27 1,2 C 94 % 1016,2 hPa 0,0 mm 4,2 km/h (1 Bft) S-SE 153 0 min 0,0 UV-I 0 W/m 0,3 C 1,2 C 9,7 km/h (2 Bft)
07/12/2023 06:24 1,1 C 94 % 1016,2 hPa 0,0 mm 4,8 km/h (1 Bft) E-SE 106 0 min 0,0 UV-I 0 W/m 0,2 C -0,2 C 9,7 km/h (2 Bft)
07/12/2023 06:21 1,1 C 94 % 1016,3 hPa 0,0 mm 2,4 km/h (1 Bft) E-SE 103 0 min 0,0 UV-I 0 W/m 0,2 C 1,1 C 6,4 km/h (2 Bft)
07/12/2023 06:18 1,1 C 94 % 1016,3 hPa 0,0 mm 6,5 km/h (2 Bft) E-SE 102 0 min 0,0 UV-I 0 W/m 0,2 C -0,9 C 12,9 km/h (3 Bft)
07/12/2023 06:15 1,1 C 94 % 1016,4 hPa 0,0 mm 3,9 km/h (1 Bft) E-NE 76 0 min 0,0 UV-I 0 W/m 0,2 C 1,1 C 11,3 km/h (2 Bft)
07/12/2023 06:12 1,1 C 94 % 1016,5 hPa 0,0 mm 3,0 km/h (1 Bft) E 93 0 min 0,0 UV-I 0 W/m 0,2 C 1,1 C 8,0 km/h (2 Bft)
07/12/2023 06:09 1,1 C 94 % 1016,5 hPa 0,0 mm 3,5 km/h (1 Bft) E 95 0 min 0,0 UV-I 0 W/m 0,2 C 1,1 C 9,7 km/h (2 Bft)
07/12/2023 06:06 1,1 C 94 % 1016,6 hPa 0,0 mm 3,5 km/h (1 Bft) E 83 0 min 0,0 UV-I 0 W/m 0,2 C 1,1 C 9,7 km/h (2 Bft)
07/12/2023 06:03 1,1 C 94 % 1016,7 hPa 0,0 mm 3,4 km/h (1 Bft) E-SE 110 0 min 0,0 UV-I 0 W/m 0,2 C 1,1 C 9,7 km/h (2 Bft)
07/12/2023 06:00 1,1 C 94 % 1016,9 hPa 0,0 mm 2,9 km/h (1 Bft) E 82 0 min 0,0 UV-I 0 W/m 0,2 C 1,1 C 9,7 km/h (2 Bft)
07/12/2023 05:57 1,0 C 94 % 1016,9 hPa 0,0 mm 2,4 km/h (1 Bft) E-NE 76 0 min 0,0 UV-I 0 W/m 0,1 C 1,0 C 6,4 km/h (2 Bft)
07/12/2023 05:54 1,0 C 94 % 1016,9 hPa 0,0 mm 4,2 km/h (1 Bft) E 79 0 min 0,0 UV-I 0 W/m 0,1 C 1,0 C 9,7 km/h (2 Bft)
07/12/2023 05:51 1,0 C 94 % 1016,8 hPa 0,0 mm 3,6 km/h (1 Bft) E 92 0 min 0,0 UV-I 0 W/m 0,1 C 1,0 C 8,0 km/h (2 Bft)
07/12/2023 05:48 1,0 C 94 % 1016,7 hPa 0,0 mm 6,5 km/h (2 Bft) E 95 0 min 0,0 UV-I 0 W/m 0,1 C -1,1 C 11,3 km/h (2 Bft)
07/12/2023 05:45 0,9 C 94 % 1016,7 hPa 0,0 mm 5,7 km/h (1 Bft) E-SE 108 0 min 0,0 UV-I 0 W/m 0,0 C -0,9 C 11,3 km/h (2 Bft)
07/12/2023 05:42 0,9 C 94 % 1016,8 hPa 0,0 mm 4,2 km/h (1 Bft) E 92 0 min 0,0 UV-I 0 W/m 0,0 C 0,9 C 12,9 km/h (3 Bft)
07/12/2023 05:39 0,9 C 94 % 1016,8 hPa 0,0 mm 4,2 km/h (1 Bft) SE 124 0 min 0,0 UV-I 0 W/m 0,0 C 0,9 C 9,7 km/h (2 Bft)
07/12/2023 05:36 0,9 C 94 % 1016,7 hPa 0,0 mm 6,0 km/h (2 Bft) E-SE 110 0 min 0,0 UV-I 0 W/m 0,0 C -1,0 C 12,9 km/h (3 Bft)
07/12/2023 05:33 0,9 C 94 % 1016,9 hPa 0,0 mm 4,3 km/h (1 Bft) E-SE 108 0 min 0,0 UV-I 0 W/m 0,0 C 0,9 C 8,0 km/h (2 Bft)
07/12/2023 05:30 0,9 C 94 % 1017,2 hPa 0,0 mm 4,8 km/h (1 Bft) E-NE 73 0 min 0,0 UV-I 0 W/m 0,0 C -0,5 C 8,0 km/h (2 Bft)
07/12/2023 05:27 0,9 C 94 % 1017,3 hPa 0,0 mm 3,3 km/h (1 Bft) E 93 0 min 0,0 UV-I 0 W/m 0,0 C 0,9 C 8,0 km/h (2 Bft)
07/12/2023 05:24 0,8 C 94 % 1017,5 hPa 0,0 mm 2,5 km/h (1 Bft) E 95 0 min 0,0 UV-I 0 W/m -0,1 C 0,8 C 9,7 km/h (2 Bft)
07/12/2023 05:21 0,8 C 94 % 1017,5 hPa 0,0 mm 3,2 km/h (1 Bft) E 87 0 min 0,0 UV-I 0 W/m -0,1 C 0,8 C 8,0 km/h (2 Bft)
07/12/2023 05:18 0,7 C 94 % 1017,4 hPa 0,0 mm 3,3 km/h (1 Bft) E-SE 108 0 min 0,0 UV-I 0 W/m -0,2 C 0,7 C 8,0 km/h (2 Bft)
07/12/2023 05:15 0,6 C 94 % 1017,4 hPa 0,0 mm 2,4 km/h (1 Bft) E 91 0 min 0,0 UV-I 0 W/m -0,3 C 0,6 C 8,0 km/h (2 Bft)
07/12/2023 05:12 0,5 C 94 % 1017,3 hPa 0,0 mm 3,2 km/h (1 Bft) E-SE 110 0 min 0,0 UV-I 0 W/m -0,4 C 0,5 C 8,0 km/h (2 Bft)
07/12/2023 05:09 0,5 C 94 % 1017,3 hPa 0,0 mm 0,0 km/h (0 Bft) E 98 0 min 0,0 UV-I 0 W/m -0,4 C 0,5 C 0,0 km/h (0 Bft)
07/12/2023 05:06 0,5 C 94 % 1017,4 hPa 0,0 mm 1,5 km/h (1 Bft) E 95 0 min 0,0 UV-I 0 W/m -0,4 C 0,5 C 3,2 km/h (1 Bft)
07/12/2023 05:03 0,6 C 94 % 1017,4 hPa 0,0 mm 2,3 km/h (1 Bft) E-SE 102 0 min 0,0 UV-I 0 W/m -0,3 C 0,6 C 4,8 km/h (1 Bft)
07/12/2023 05:00 0,6 C 94 % 1017,4 hPa 0,0 mm 2,3 km/h (1 Bft) E 95 0 min 0,0 UV-I 0 W/m -0,3 C 0,6 C 4,8 km/h (1 Bft)
07/12/2023 04:57 0,7 C 94 % 1017,5 hPa 0,0 mm 2,4 km/h (1 Bft) E 91 0 min 0,0 UV-I 0 W/m -0,2 C 0,7 C 3,2 km/h (1 Bft)
07/12/2023 04:54 0,7 C 94 % 1017,7 hPa 0,0 mm 2,9 km/h (1 Bft) E 83 0 min 0,0 UV-I 0 W/m -0,2 C 0,7 C 6,4 km/h (2 Bft)
07/12/2023 04:51 0,7 C 94 % 1017,7 hPa 0,0 mm 0,3 km/h (0 Bft) E 81 0 min 0,0 UV-I 0 W/m -0,2 C 0,7 C 6,4 km/h (2 Bft)
07/12/2023 04:48 0,7 C 94 % 1017,8 hPa 0,0 mm 0,0 km/h (0 Bft) E-SE 109 0 min 0,0 UV-I 0 W/m -0,2 C 0,7 C 0,0 km/h (0 Bft)
07/12/2023 04:45 0,8 C 94 % 1017,9 hPa 0,0 mm 0,0 km/h (0 Bft) E-SE 108 0 min 0,0 UV-I 0 W/m -0,1 C 0,8 C 0,0 km/h (0 Bft)
07/12/2023 04:42 0,8 C 94 % 1017,8 hPa 0,0 mm 0,0 km/h (0 Bft) E-SE 107 0 min 0,0 UV-I 0 W/m -0,1 C 0,8 C 0,0 km/h (0 Bft)
07/12/2023 04:39 0,8 C 94 % 1017,9 hPa 0,0 mm 0,0 km/h (0 Bft) E-SE 104 0 min 0,0 UV-I 0 W/m -0,1 C 0,8 C 0,0 km/h (0 Bft)
07/12/2023 04:36 0,8 C 94 % 1017,9 hPa 0,0 mm 0,0 km/h (0 Bft) E-SE 106 0 min 0,0 UV-I 0 W/m -0,1 C 0,8 C 0,0 km/h (0 Bft)
07/12/2023 04:33 0,8 C 94 % 1018,0 hPa 0,0 mm 0,0 km/h (0 Bft) E-SE 104 0 min 0,0 UV-I 0 W/m -0,1 C 0,8 C 0,0 km/h (0 Bft)
07/12/2023 04:30 0,8 C 94 % 1017,8 hPa 0,0 mm 0,0 km/h (0 Bft) E-SE 106 0 min 0,0 UV-I 0 W/m -0,1 C 0,8 C 0,0 km/h (0 Bft)
07/12/2023 04:27 0,7 C 94 % 1017,8 hPa 0,0 mm 0,8 km/h (0 Bft) E 96 0 min 0,0 UV-I 0 W/m -0,2 C 0,7 C 6,4 km/h (2 Bft)
07/12/2023 04:24 0,7 C 94 % 1017,8 hPa 0,0 mm 0,0 km/h (0 Bft) E 95 0 min 0,0 UV-I 0 W/m -0,2 C 0,7 C 0,0 km/h (0 Bft)
07/12/2023 04:21 0,7 C 93 % 1017,7 hPa 0,0 mm 0,0 km/h (0 Bft) E 93 0 min 0,0 UV-I 0 W/m -0,3 C 0,7 C 0,0 km/h (0 Bft)
07/12/2023 04:18 0,7 C 94 % 1017,7 hPa 0,0 mm 0,5 km/h (0 Bft) E 93 0 min 0,0 UV-I 0 W/m -0,2 C 0,7 C 3,2 km/h (1 Bft)
07/12/2023 04:15 0,6 C 93 % 1017,5 hPa 0,0 mm 1,7 km/h (1 Bft) E 93 0 min 0,0 UV-I 0 W/m -0,4 C 0,6 C 3,2 km/h (1 Bft)
07/12/2023 04:12 0,6 C 93 % 1017,5 hPa 0,0 mm 0,0 km/h (0 Bft) E 97 0 min 0,0 UV-I 0 W/m -0,4 C 0,6 C 0,0 km/h (0 Bft)
07/12/2023 04:09 0,7 C 94 % 1017,6 hPa 0,0 mm 0,0 km/h (0 Bft) E 100 0 min 0,0 UV-I 0 W/m -0,2 C 0,7 C 0,0 km/h (0 Bft)
07/12/2023 04:06 0,8 C 94 % 1017,6 hPa 0,2 mm 0,0 km/h (0 Bft) E 99 0 min 0,0 UV-I 0 W/m -0,1 C 0,8 C 0,0 km/h (0 Bft)
07/12/2023 04:03 0,8 C 94 % 1017,7 hPa 0,0 mm 0,0 km/h (0 Bft) E 98 0 min 0,0 UV-I 0 W/m -0,1 C 0,8 C 0,0 km/h (0 Bft)
07/12/2023 04:00 0,8 C 94 % 1017,6 hPa 0,0 mm 1,3 km/h (1 Bft) E 97 0 min 0,0 UV-I 0 W/m -0,1 C 0,8 C 6,4 km/h (2 Bft)
07/12/2023 03:57 0,8 C 94 % 1017,6 hPa 0,0 mm 2,1 km/h (1 Bft) E 94 0 min 0,0 UV-I 0 W/m -0,1 C 0,8 C 4,8 km/h (1 Bft)
07/12/2023 03:54 0,8 C 93 % 1017,6 hPa 0,0 mm 2,0 km/h (1 Bft) E 94 0 min 0,0 UV-I 0 W/m -0,2 C 0,8 C 3,2 km/h (1 Bft)
07/12/2023 03:51 0,9 C 94 % 1017,5 hPa 0,0 mm 2,4 km/h (1 Bft) E 92 0 min 0,0 UV-I 0 W/m 0,0 C 0,9 C 8,0 km/h (2 Bft)
07/12/2023 03:45 1,0 C 94 % 1017,6 hPa 0,0 mm 5,0 km/h (1 Bft) E 89 0 min 0,0 UV-I 0 W/m 0,1 C -0,5 C 9,7 km/h (2 Bft)
07/12/2023 03:42 1,1 C 94 % 1017,6 hPa 0,0 mm 3,3 km/h (1 Bft) E 93 0 min 0,0 UV-I 0 W/m 0,2 C 1,1 C 8,0 km/h (2 Bft)
07/12/2023 03:39 1,1 C 94 % 1017,6 hPa 0,0 mm 3,8 km/h (1 Bft) E 79 0 min 0,0 UV-I 0 W/m 0,2 C 1,1 C 8,0 km/h (2 Bft)
07/12/2023 03:36 1,1 C 94 % 1017,6 hPa 0,0 mm 3,5 km/h (1 Bft) E 88 0 min 0,0 UV-I 0 W/m 0,2 C 1,1 C 8,0 km/h (2 Bft)
07/12/2023 03:33 1,1 C 94 % 1017,7 hPa 0,0 mm 4,2 km/h (1 Bft) E-SE 117 0 min 0,0 UV-I 0 W/m 0,2 C 1,1 C 9,7 km/h (2 Bft)
07/12/2023 03:30 1,1 C 94 % 1017,7 hPa 0,0 mm 5,3 km/h (1 Bft) E-SE 106 0 min 0,0 UV-I 0 W/m 0,2 C -0,5 C 11,3 km/h (2 Bft)
07/12/2023 03:27 1,1 C 94 % 1017,7 hPa 0,0 mm 3,5 km/h (1 Bft) E-SE 117 0 min 0,0 UV-I 0 W/m 0,2 C 1,1 C 6,4 km/h (2 Bft)
07/12/2023 03:24 1,1 C 94 % 1017,8 hPa 0,0 mm 2,5 km/h (1 Bft) E-SE 102 0 min 0,0 UV-I 0 W/m 0,2 C 1,1 C 9,7 km/h (2 Bft)
07/12/2023 03:21 1,1 C 94 % 1017,9 hPa 0,0 mm 1,4 km/h (1 Bft) E-SE 105 0 min 0,0 UV-I 0 W/m 0,2 C 1,1 C 3,2 km/h (1 Bft)
07/12/2023 03:18 1,1 C 93 % 1017,8 hPa 0,0 mm 1,3 km/h (1 Bft) E 91 0 min 0,0 UV-I 0 W/m 0,1 C 1,1 C 4,8 km/h (1 Bft)
07/12/2023 03:15 1,2 C 94 % 1017,8 hPa 0,0 mm 3,2 km/h (1 Bft) E 85 0 min 0,0 UV-I 0 W/m 0,3 C 1,2 C 6,4 km/h (2 Bft)
07/12/2023 03:12 1,2 C 93 % 1017,8 hPa 0,0 mm 4,2 km/h (1 Bft) E-NE 64 0 min 0,0 UV-I 0 W/m 0,2 C 1,2 C 8,0 km/h (2 Bft)
07/12/2023 03:09 1,2 C 94 % 1017,9 hPa 0,0 mm 5,0 km/h (1 Bft) E 89 0 min 0,0 UV-I 0 W/m 0,3 C -0,2 C 9,7 km/h (2 Bft)
07/12/2023 03:06 1,3 C 93 % 1018,1 hPa 0,0 mm 3,4 km/h (1 Bft) E 81 0 min 0,0 UV-I 0 W/m 0,3 C 1,3 C 6,4 km/h (2 Bft)
07/12/2023 03:03 1,2 C 93 % 1018,2 hPa 0,0 mm 5,2 km/h (1 Bft) E 94 0 min 0,0 UV-I 0 W/m 0,2 C -0,3 C 11,3 km/h (2 Bft)
07/12/2023 03:00 1,2 C 93 % 1018,3 hPa 0,0 mm 3,5 km/h (1 Bft) E 81 0 min 0,0 UV-I 0 W/m 0,2 C 1,2 C 8,0 km/h (2 Bft)
07/12/2023 02:57 1,2 C 93 % 1018,3 hPa 0,0 mm 3,2 km/h (1 Bft) E 87 0 min 0,0 UV-I 0 W/m 0,2 C 1,2 C 8,0 km/h (2 Bft)
07/12/2023 02:54 1,2 C 93 % 1018,4 hPa 0,0 mm 2,2 km/h (1 Bft) E 97 0 min 0,0 UV-I 0 W/m 0,2 C 1,2 C 8,0 km/h (2 Bft)
07/12/2023 02:51 1,2 C 93 % 1018,4 hPa 0,0 mm 1,8 km/h (1 Bft) E 99 0 min 0,0 UV-I 0 W/m 0,2 C 1,2 C 6,4 km/h (2 Bft)
07/12/2023 02:48 1,2 C 93 % 1018,5 hPa 0,0 mm 2,8 km/h (1 Bft) E 94 0 min 0,0 UV-I 0 W/m 0,2 C 1,2 C 8,0 km/h (2 Bft)
07/12/2023 02:45 1,2 C 93 % 1018,5 hPa 0,0 mm 4,2 km/h (1 Bft) E 81 0 min 0,0 UV-I 0 W/m 0,2 C 1,2 C 9,7 km/h (2 Bft)
07/12/2023 02:42 1,2 C 93 % 1018,4 hPa 0,0 mm 4,1 km/h (1 Bft) E 80 0 min 0,0 UV-I 0 W/m 0,2 C 1,2 C 8,0 km/h (2 Bft)
07/12/2023 02:39 1,2 C 93 % 1018,4 hPa 0,0 mm 2,3 km/h (1 Bft) E-SE 102 0 min 0,0 UV-I 0 W/m 0,2 C 1,2 C 6,4 km/h (2 Bft)
07/12/2023 02:36 1,2 C 93 % 1018,5 hPa 0,0 mm 2,3 km/h (1 Bft) E 81 0 min 0,0 UV-I 0 W/m 0,2 C 1,2 C 8,0 km/h (2 Bft)
07/12/2023 02:33 1,2 C 93 % 1018,6 hPa 0,0 mm 1,8 km/h (1 Bft) E 93 0 min 0,0 UV-I 0 W/m 0,2 C 1,2 C 6,4 km/h (2 Bft)
07/12/2023 02:30 1,3 C 93 % 1018,4 hPa 0,0 mm 3,1 km/h (1 Bft) E-NE 72 0 min 0,0 UV-I 0 W/m 0,3 C 1,3 C 9,7 km/h (2 Bft)
07/12/2023 02:27 1,2 C 93 % 1018,3 hPa 0,0 mm 3,2 km/h (1 Bft) E-SE 123 0 min 0,0 UV-I 0 W/m 0,2 C 1,2 C 9,7 km/h (2 Bft)
07/12/2023 02:24 1,3 C 93 % 1018,3 hPa 0,0 mm 4,9 km/h (1 Bft) E 96 0 min 0,0 UV-I 0 W/m 0,3 C -0,1 C 11,3 km/h (2 Bft)
07/12/2023 02:21 1,2 C 93 % 1018,3 hPa 0,0 mm 6,2 km/h (2 Bft) E 89 0 min 0,0 UV-I 0 W/m 0,2 C -0,7 C 11,3 km/h (2 Bft)
07/12/2023 02:18 1,2 C 93 % 1018,3 hPa 0,0 mm 4,9 km/h (1 Bft) E 87 0 min 0,0 UV-I 0 W/m 0,2 C -0,2 C 9,7 km/h (2 Bft)
07/12/2023 02:15 1,2 C 93 % 1018,4 hPa 0,0 mm 5,6 km/h (1 Bft) E-SE 106 0 min 0,0 UV-I 0 W/m 0,2 C -0,5 C 11,3 km/h (2 Bft)
07/12/2023 02:12 1,2 C 93 % 1018,5 hPa 0,0 mm 3,5 km/h (1 Bft) E 82 0 min 0,0 UV-I 0 W/m 0,2 C 1,2 C 8,0 km/h (2 Bft)
07/12/2023 02:09 1,2 C 93 % 1018,5 hPa 0,0 mm 2,8 km/h (1 Bft) E 79 0 min 0,0 UV-I 0 W/m 0,2 C 1,2 C 6,4 km/h (2 Bft)
07/12/2023 02:06 1,2 C 93 % 1018,6 hPa 0,0 mm 3,3 km/h (1 Bft) E 85 0 min 0,0 UV-I 0 W/m 0,2 C 1,2 C 6,4 km/h (2 Bft)
07/12/2023 02:03 1,3 C 94 % 1018,7 hPa 0,0 mm 4,0 km/h (1 Bft) E 91 0 min 0,0 UV-I 0 W/m 0,4 C 1,3 C 8,0 km/h (2 Bft)
07/12/2023 02:00 1,3 C 94 % 1018,8 hPa 0,0 mm 4,5 km/h (1 Bft) E-NE 68 0 min 0,0 UV-I 0 W/m 0,4 C 1,3 C 8,0 km/h (2 Bft)
07/12/2023 01:57 1,3 C 94 % 1018,8 hPa 0,0 mm 6,1 km/h (2 Bft) E-NE 75 0 min 0,0 UV-I 0 W/m 0,4 C -0,6 C 9,7 km/h (2 Bft)
07/12/2023 01:54 1,3 C 94 % 1018,8 hPa 0,0 mm 4,2 km/h (1 Bft) E 87 0 min 0,0 UV-I 0 W/m 0,4 C 1,3 C 9,7 km/h (2 Bft)
07/12/2023 01:51 1,3 C 94 % 1018,8 hPa 0,0 mm 2,5 km/h (1 Bft) E-NE 77 0 min 0,0 UV-I 0 W/m 0,4 C 1,3 C 8,0 km/h (2 Bft)
07/12/2023 01:48 1,3 C 94 % 1018,8 hPa 0,0 mm 1,9 km/h (1 Bft) E 94 0 min 0,0 UV-I 0 W/m 0,4 C 1,3 C 8,0 km/h (2 Bft)
07/12/2023 01:45 1,4 C 94 % 1018,7 hPa 0,0 mm 1,9 km/h (1 Bft) E-SE 106 0 min 0,0 UV-I 0 W/m 0,5 C 1,4 C 8,0 km/h (2 Bft)
07/12/2023 01:42 1,4 C 93 % 1018,8 hPa 0,0 mm 0,7 km/h (0 Bft) E 79 0 min 0,0 UV-I 0 W/m 0,4 C 1,4 C 3,2 km/h (1 Bft)
07/12/2023 01:39 1,5 C 93 % 1018,9 hPa 0,0 mm 1,0 km/h (0 Bft) E 81 0 min 0,0 UV-I 0 W/m 0,5 C 1,5 C 3,2 km/h (1 Bft)
07/12/2023 01:36 1,5 C 93 % 1018,9 hPa 0,0 mm 1,4 km/h (1 Bft) E 95 0 min 0,0 UV-I 0 W/m 0,5 C 1,5 C 4,8 km/h (1 Bft)
07/12/2023 01:33 1,5 C 93 % 1018,9 hPa 0,0 mm 4,5 km/h (1 Bft) E 88 0 min 0,0 UV-I 0 W/m 0,5 C 1,5 C 9,7 km/h (2 Bft)
07/12/2023 01:30 1,4 C 93 % 1018,8 hPa 0,0 mm 4,2 km/h (1 Bft) E-SE 122 0 min 0,0 UV-I 0 W/m 0,4 C 1,4 C 11,3 km/h (2 Bft)
07/12/2023 01:27 1,4 C 93 % 1018,9 hPa 0,0 mm 1,9 km/h (1 Bft) E 90 0 min 0,0 UV-I 0 W/m 0,4 C 1,4 C 6,4 km/h (2 Bft)
07/12/2023 01:24 1,5 C 93 % 1018,9 hPa 0,0 mm 2,6 km/h (1 Bft) E 91 0 min 0,0 UV-I 0 W/m 0,5 C 1,5 C 8,0 km/h (2 Bft)
07/12/2023 01:21 1,5 C 93 % 1019,0 hPa 0,0 mm 4,2 km/h (1 Bft) E 87 0 min 0,0 UV-I 0 W/m 0,5 C 1,5 C 8,0 km/h (2 Bft)
07/12/2023 01:15 1,6 C 94 % 1019,0 hPa 0,0 mm 2,0 km/h (1 Bft) E 93 0 min 0,0 UV-I 0 W/m 0,7 C 1,6 C 3,2 km/h (1 Bft)
07/12/2023 01:12 1,6 C 94 % 1019,0 hPa 0,0 mm 2,9 km/h (1 Bft) E 81 0 min 0,0 UV-I 0 W/m 0,7 C 1,6 C 6,4 km/h (2 Bft)
07/12/2023 01:09 1,6 C 94 % 1019,1 hPa 0,0 mm 2,8 km/h (1 Bft) E 88 0 min 0,0 UV-I 0 W/m 0,7 C 1,6 C 6,4 km/h (2 Bft)
07/12/2023 01:06 1,6 C 94 % 1019,1 hPa 0,0 mm 2,7 km/h (1 Bft) E-SE 111 0 min 0,0 UV-I 0 W/m 0,7 C 1,6 C 6,4 km/h (2 Bft)
07/12/2023 01:03 1,5 C 93 % 1019,0 hPa 0,0 mm 3,5 km/h (1 Bft) E 89 0 min 0,0 UV-I 0 W/m 0,5 C 1,5 C 6,4 km/h (2 Bft)
07/12/2023 01:00 1,5 C 93 % 1019,0 hPa 0,0 mm 4,1 km/h (1 Bft) E 82 0 min 0,0 UV-I 0 W/m 0,5 C 1,5 C 8,0 km/h (2 Bft)
07/12/2023 00:57 1,4 C 93 % 1018,9 hPa 0,0 mm 3,8 km/h (1 Bft) E 86 0 min 0,0 UV-I 0 W/m 0,4 C 1,4 C 8,0 km/h (2 Bft)
07/12/2023 00:54 1,4 C 93 % 1018,9 hPa 0,0 mm 3,0 km/h (1 Bft) E 92 0 min 0,0 UV-I 0 W/m 0,4 C 1,4 C 6,4 km/h (2 Bft)
07/12/2023 00:51 1,4 C 93 % 1018,9 hPa 0,0 mm 1,9 km/h (1 Bft) E 88 0 min 0,0 UV-I 0 W/m 0,4 C 1,4 C 6,4 km/h (2 Bft)
07/12/2023 00:48 1,5 C 93 % 1018,9 hPa 0,0 mm 0,0 km/h (0 Bft) E 79 0 min 0,0 UV-I 0 W/m 0,5 C 1,5 C 0,0 km/h (0 Bft)
07/12/2023 00:45 1,6 C 93 % 1018,9 hPa 0,0 mm 1,5 km/h (1 Bft) E 85 0 min 0,0 UV-I 0 W/m 0,6 C 1,6 C 3,2 km/h (1 Bft)
07/12/2023 00:42 1,7 C 93 % 1018,9 hPa 0,0 mm 2,1 km/h (1 Bft) E 82 0 min 0,0 UV-I 0 W/m 0,7 C 1,7 C 4,8 km/h (1 Bft)
07/12/2023 00:39 1,7 C 93 % 1018,8 hPa 0,0 mm 4,0 km/h (1 Bft) E 79 0 min 0,0 UV-I 0 W/m 0,7 C 1,7 C 8,0 km/h (2 Bft)
07/12/2023 00:36 1,8 C 93 % 1018,8 hPa 0,0 mm 5,7 km/h (1 Bft) E-NE 75 0 min 0,0 UV-I 0 W/m 0,8 C 0,2 C 9,7 km/h (2 Bft)
07/12/2023 00:33 1,8 C 93 % 1018,7 hPa 0,0 mm 6,5 km/h (2 Bft) E-NE 75 0 min 0,0 UV-I 0 W/m 0,8 C -0,1 C 9,7 km/h (2 Bft)
07/12/2023 00:30 1,8 C 93 % 1018,7 hPa 0,0 mm 5,7 km/h (1 Bft) E 83 0 min 0,0 UV-I 0 W/m 0,8 C 0,2 C 9,7 km/h (2 Bft)
07/12/2023 00:27 1,9 C 93 % 1018,7 hPa 0,0 mm 5,2 km/h (1 Bft) E-SE 115 0 min 0,0 UV-I 0 W/m 0,9 C 0,5 C 9,7 km/h (2 Bft)
07/12/2023 00:24 1,9 C 93 % 1018,5 hPa 0,0 mm 5,6 km/h (1 Bft) E 90 0 min 0,0 UV-I 0 W/m 0,9 C 0,3 C 9,7 km/h (2 Bft)
07/12/2023 00:21 1,9 C 93 % 1018,6 hPa 0,0 mm 5,5 km/h (1 Bft) E 88 0 min 0,0 UV-I 0 W/m 0,9 C 0,4 C 9,7 km/h (2 Bft)
07/12/2023 00:18 2,0 C 93 % 1018,5 hPa 0,0 mm 7,1 km/h (2 Bft) E 90 0 min 0,0 UV-I 0 W/m 1,0 C -0,1 C 12,9 km/h (3 Bft)
07/12/2023 00:15 2,1 C 93 % 1018,6 hPa 0,0 mm 7,6 km/h (2 Bft) E-NE 57 0 min 0,0 UV-I 0 W/m 1,1 C -0,2 C 12,9 km/h (3 Bft)
07/12/2023 00:12 2,1 C 93 % 1018,5 hPa 0,0 mm 5,3 km/h (1 Bft) E 82 0 min 0,0 UV-I 0 W/m 1,1 C 0,7 C 11,3 km/h (2 Bft)
07/12/2023 00:09 2,2 C 93 % 1018,5 hPa 0,0 mm 3,6 km/h (1 Bft) E 85 0 min 0,0 UV-I 0 W/m 1,2 C 2,2 C 11,3 km/h (2 Bft)
07/12/2023 00:06 2,2 C 93 % 1018,4 hPa 0,0 mm 1,8 km/h (1 Bft) E 97 0 min 0,0 UV-I 0 W/m 1,2 C 2,2 C 6,4 km/h (2 Bft)
07/12/2023 00:03 2,2 C 93 % 1018,7 hPa 0,0 mm 1,3 km/h (1 Bft) SE 129 0 min 0,0 UV-I 0 W/m 1,2 C 2,2 C 4,8 km/h (1 Bft)
07/12/2023 00:00 2,2 C 93 % 1018,9 hPa 0,0 mm 0,6 km/h (0 Bft) E 90 0 min 0,0 UV-I 0 W/m 1,2 C 2,2 C 3,2 km/h (1 Bft)
_ Min-Heure 05:12 13:33 19:54 - 00:48 - - - - - 04:12 05:48 00:48
Minimum _ 0,4 C 74 % 1009,8 hPa - 0,0 km/h (0 Bft) - - - - - -0,4 C -1,1 C 0,0 km/h (0 Bft)
_ Max-Heure 14:57 01:06 01:06 04:06 19:24 - - 12:15 12:12 12:18 20:27 14:57 12:27
Maximum _ 8,9 C 94 % 1019,1 hPa 0,2 mm 11,4 km/h
S (2 Bft)
- - 3 min 0,6 UV-I 248 W/m 7,6 C 8,9 C 29,0 km/h
S-SE (5 Bft)
Moyenne _ 4,5 C 88 % 1014,3 hPa #10,6 mm 4,5 km/h (1 Bft) E - #15 min. 0,6 UV-I 86 W/m 2,7 C 3,9 C 10,6 km/h (2 Bft)